Observation data for Lomax on 04/16/2021      Previous  Date  Next       Current Mesonet Observations  Soil Data  Daily Summary Page  Observations in Plain Language
KLO1 160500Z 06004KT 12/12 A2986 RMK A01 T01180118  RH  100%=      5-min Rain = 0
KLO1 160501Z 06004KT 12/12 A2986 RMK A01 T01180118  RH  100%=      5-min Rain = 0
KLO1 160502Z 06004KT 12/12 A2986 RMK A01 T01180118  RH  100%=      5-min Rain = 0
KLO1 160503Z 06004KT 12/12 A2986 RMK A01 T01180119  RH  100%=      5-min Rain = 0
KLO1 160504Z 06004KT 12/12 A2986 RMK A01 T01180118  RH  100%=      5-min Rain = 0
KLO1 160505Z 06005KT 12/12 A2986 RMK A01 T01180118  RH  100%=      5-min Rain = 0
KLO1 160506Z 06004KT 12/12 A2986 RMK A01 T01180118  RH  100%=      5-min Rain = 0
KLO1 160507Z 05003KT 12/12 A2986 RMK A01 T01180119  RH  100%=      5-min Rain = 0
KLO1 160508Z 06004KT 12/12 A2986 RMK A01 T01180118  RH  100%=      5-min Rain = 0
KLO1 160509Z 06003KT 12/12 A2987 RMK A01 T01190119  RH  100%=      5-min Rain = 0
KLO1 160510Z 05004KT 12/12 A2987 RMK A01 T01190119  RH  100%=      5-min Rain = 0
KLO1 160511Z 05004KT 12/12 A2987 RMK A01 T01190119  RH  100%=      5-min Rain = 0
KLO1 160512Z 05004KT 12/12 A2987 RMK A01 T01190119  RH  100%=      5-min Rain = 0
KLO1 160513Z 06004KT 12/12 A2987 RMK A01 T01190119  RH  100%=      5-min Rain = 0
KLO1 160514Z 05003KT 12/12 A2987 RMK A01 T01190119  RH  100%=      5-min Rain = 0
KLO1 160515Z 05003KT 12/12 A2986 RMK A01 T01190119  RH  100%=      5-min Rain = 0
KLO1 160516Z 05004KT 12/12 A2986 RMK A01 T01190119  RH  100%=      5-min Rain = 0
KLO1 160517Z 05003KT 12/12 A2986 RMK A01 T01190119  RH  100%=      5-min Rain = 0
KLO1 160518Z 04003KT 12/12 A2986 RMK A01 T01190119  RH  100%=      5-min Rain = 0
KLO1 160519Z 04003KT 12/12 A2986 RMK A01 T01190119  RH  100%=      5-min Rain = 0
KLO1 160520Z 05004KT 12/12 A2986 RMK A01 T01190119  RH  100%=      5-min Rain = 0
KLO1 160521Z 05004KT 12/12 A2986 RMK A01 T01190119  RH  100%=      5-min Rain = 0
KLO1 160522Z 04004KT 12/12 A2986 RMK A01 T01190119  RH  100%=      5-min Rain = 0
KLO1 160523Z 04005KT 12/12 A2986 RMK A01 T01190119  RH  100%=      5-min Rain = 0
KLO1 160524Z 04004KT 12/12 A2986 RMK A01 T01200120  RH  100%=      5-min Rain = 0
KLO1 160525Z 03004KT 12/12 A2986 RMK A01 T01200120  RH  100%=      5-min Rain = 0
KLO1 160526Z 03004KT 12/12 A2986 RMK A01 T01200120  RH  100%=      5-min Rain = 0
KLO1 160527Z 02004KT 12/12 A2987 RMK A01 T01200120  RH  100%=      5-min Rain = 0
KLO1 160528Z 02004KT 12/12 A2987 RMK A01 T01200120  RH  100%=      5-min Rain = 0
KLO1 160529Z 02004KT 12/12 A2987 RMK A01 T01200120  RH  100%=      5-min Rain = 0
KLO1 160530Z 01004KT 12/12 A2987 RMK A01 T01200120  RH  100%=      5-min Rain = 0
KLO1 160531Z 01004KT 12/12 A2987 RMK A01 T01200120  RH  100%=      5-min Rain = 0
KLO1 160532Z 01004KT 12/12 A2987 RMK A01 T01200120  RH  100%=      5-min Rain = 0
KLO1 160533Z 01004KT 12/12 A2986 RMK A01 T01200120  RH  100%=      5-min Rain = 0
KLO1 160534Z 01004KT 12/12 A2986 RMK A01 T01200120  RH  100%=      5-min Rain = 0
KLO1 160535Z 01004KT 12/12 A2986 RMK A01 T01200120  RH  100%=      5-min Rain = 0
KLO1 160536Z 01003KT 12/12 A2986 RMK A01 T01200120  RH  100%=      5-min Rain = 0
KLO1 160537Z 01003KT 12/12 A2986 RMK A01 T01200120  RH  100%=      5-min Rain = 0
KLO1 160538Z 01003KT 12/12 A2986 RMK A01 T01200120  RH  100%=      5-min Rain = 0
KLO1 160539Z 01004KT 12/12 A2986 RMK A01 T01200120  RH  100%=      5-min Rain = 0
KLO1 160540Z 01004KT 12/12 A2986 RMK A01 T01200120  RH  100%=      5-min Rain = 0
KLO1 160541Z 01003KT 12/12 A2986 RMK A01 T01200120  RH  100%=      5-min Rain = 0
KLO1 160542Z 00004KT 12/12 A2986 RMK A01 T01200120  RH  100%=      5-min Rain = 0
KLO1 160543Z 01004KT 12/12 A2986 RMK A01 T01200120  RH  100%=      5-min Rain = 0
KLO1 160544Z 01004KT 12/12 A2986 RMK A01 T01200120  RH  100%=      5-min Rain = 0
KLO1 160545Z 00004KT 12/12 A2986 RMK A01 T01200120  RH  100%=      5-min Rain = 0
KLO1 160546Z 36004KT 12/12 A2986 RMK A01 T01200120  RH  100%=      5-min Rain = 0
KLO1 160547Z 00004KT 12/12 A2986 RMK A01 T01200120  RH  100%=      5-min Rain = 0
KLO1 160548Z 00004KT 12/12 A2986 RMK A01 T01200120  RH  100%=      5-min Rain = 0
KLO1 160549Z 00004KT 12/12 A2986 RMK A01 T01200120  RH  100%=      5-min Rain = 0
KLO1 160550Z 00005KT 12/12 A2986 RMK A01 T01200120  RH  100%=      5-min Rain = 0
KLO1 160551Z 36004KT 12/12 A2986 RMK A01 T01200120  RH  100%=      5-min Rain = 0
KLO1 160552Z 35004KT 12/12 A2986 RMK A01 T01200120  RH  100%=      5-min Rain = 0
KLO1 160553Z 34004KT 12/12 A2986 RMK A01 T01200120  RH  100%=      5-min Rain = 0
KLO1 160554Z 34004KT 12/12 A2987 RMK A01 T01200120  RH  100%=      5-min Rain = 0
KLO1 160555Z 35005KT 12/12 A2987 RMK A01 T01210121  RH  100%=      5-min Rain = 0
KLO1 160556Z 34005KT 12/12 A2987 RMK A01 T01210121  RH  100%=      5-min Rain = 0
KLO1 160557Z 34005KT 12/12 A2987 RMK A01 T01210121  RH  100%=      5-min Rain = 0
KLO1 160558Z 34006KT 12/12 A2987 RMK A01 T01210121  RH  100%=      5-min Rain = 0
KLO1 160559Z 33006KT 12/12 A2987 RMK A01 T01210121  RH  100%=      5-min Rain = 0
KLO1 160600Z 33007KT 12/12 A2987 RMK A01 T01210121  RH  100%=      5-min Rain = 0
KLO1 160601Z 33007KT 12/12 A2987 RMK A01 T01210121  RH  100%=      5-min Rain = 0
KLO1 160602Z 33006KT 12/12 A2988 RMK A01 T01210121  RH  100%=      5-min Rain = 0
KLO1 160603Z 33006KT 12/12 A2988 RMK A01 T01210121  RH  100%=      5-min Rain = 0
KLO1 160604Z 32006KT 12/12 A2988 RMK A01 T01210121  RH  100%=      5-min Rain = 0
KLO1 160605Z 33007KT 12/12 A2988 RMK A01 T01210121  RH  100%=      5-min Rain = 0
KLO1 160606Z 33007KT 12/12 A2988 RMK A01 T01210121  RH  100%=      5-min Rain = 0
KLO1 160607Z 33006KT 12/12 A2988 RMK A01 T01210121  RH  100%=      5-min Rain = 0.01
KLO1 160608Z 32006KT 12/12 A2988 RMK A01 T01210121  RH  100%=      5-min Rain = 0
KLO1 160609Z 33006KT 12/12 A2988 RMK A01 T01210121  RH  100%=      5-min Rain = 0
KLO1 160610Z 33005KT 12/12 A2987 RMK A01 T01200120  RH  100%=      5-min Rain = 0
KLO1 160611Z 33005KT 12/12 A2987 RMK A01 T01200120  RH  100%=      5-min Rain = 0
KLO1 160612Z 34004KT 12/12 A2987 RMK A01 T01200120  RH  100%=      5-min Rain = 0
KLO1 160613Z 34004KT 12/12 A2987 RMK A01 T01200120  RH  100%=      5-min Rain = 0
KLO1 160614Z 34004KT 12/12 A2987 RMK A01 T01200120  RH  100%=      5-min Rain = 0
KLO1 160615Z 34005KT 12/12 A2987 RMK A01 T01200120  RH  100%=      5-min Rain = 0
KLO1 160616Z 35005KT 12/12 A2987 RMK A01 T01200120  RH  100%=      5-min Rain = 0
KLO1 160617Z 34004KT 12/12 A2987 RMK A01 T01200120  RH  100%=      5-min Rain = 0
KLO1 160618Z 33005KT 12/12 A2987 RMK A01 T01200120  RH  100%=      5-min Rain = 0
KLO1 160619Z 34004KT 12/12 A2987 RMK A01 T01200120  RH  100%=      5-min Rain = 0
KLO1 160620Z 34004KT 12/12 A2987 RMK A01 T01200120  RH  100%=      5-min Rain = 0
KLO1 160621Z 35003KT 12/12 A2987 RMK A01 T01200120  RH  100%=      5-min Rain = 0
KLO1 160622Z 35003KT 12/12 A2987 RMK A01 T01200120  RH  100%=      5-min Rain = 0
KLO1 160623Z 36003KT 12/12 A2987 RMK A01 T01200120  RH  100%=      5-min Rain = 0
KLO1 160624Z 00003KT 12/12 A2987 RMK A01 T01200120  RH  100%=      5-min Rain = 0
KLO1 160625Z 00002KT 12/12 A2987 RMK A01 T01200120  RH  100%=      5-min Rain = 0
KLO1 160626Z 36003KT 12/12 A2987 RMK A01 T01200120  RH  100%=      5-min Rain = 0
KLO1 160627Z 36002KT 12/12 A2987 RMK A01 T01200120  RH  100%=      5-min Rain = 0
KLO1 160628Z 35001KT 12/12 A2987 RMK A01 T01200120  RH  100%=      5-min Rain = 0
KLO1 160629Z 34001KT 12/12 A2987 RMK A01 T01200120  RH  100%=      5-min Rain = 0
KLO1 160630Z 35000KT 12/12 A2987 RMK A01 T01200120  RH  100%=      5-min Rain = 0
KLO1 160631Z 00000KT 12/12 A2986 RMK A01 T01200120  RH  100%=      5-min Rain = 0
KLO1 160632Z 06000KT 12/12 A2986 RMK A01 T01200120  RH  100%=      5-min Rain = 0
KLO1 160633Z 08001KT 12/12 A2986 RMK A01 T01200120  RH  100%=      5-min Rain = 0
KLO1 160634Z 08001KT 12/12 A2986 RMK A01 T01200120  RH  100%=      5-min Rain = 0
KLO1 160635Z 10002KT 12/12 A2986 RMK A01 T01200120  RH  100%=      5-min Rain = 0
KLO1 160636Z 11002KT 12/12 A2986 RMK A01 T01200120  RH  100%=      5-min Rain = 0
KLO1 160637Z 11003KT 12/12 A2986 RMK A01 T01200120  RH  100%=      5-min Rain = 0
KLO1 160638Z 10003KT 12/12 A2985 RMK A01 T01200120  RH  100%=      5-min Rain = 0
KLO1 160639Z 10003KT 12/12 A2985 RMK A01 T01200120  RH  100%=      5-min Rain = 0
KLO1 160640Z 10003KT 12/12 A2985 RMK A01 T01200120  RH  100%=      5-min Rain = 0
KLO1 160641Z 10004KT 12/12 A2985 RMK A01 T01200120  RH  100%=      5-min Rain = 0
KLO1 160642Z 11004KT 12/12 A2985 RMK A01 T01200120  RH  100%=      5-min Rain = 0
KLO1 160643Z 10004KT 12/12 A2985 RMK A01 T01200120  RH  100%=      5-min Rain = 0
KLO1 160644Z 11004KT 12/12 A2985 RMK A01 T01210121  RH  100%=      5-min Rain = 0
KLO1 160645Z 11004KT 12/12 A2985 RMK A01 T01210121  RH  100%=      5-min Rain = 0
KLO1 160646Z 11005KT 12/12 A2985 RMK A01 T01210121  RH  100%=      5-min Rain = 0
KLO1 160647Z 11005KT 12/12 A2985 RMK A01 T01210121  RH  100%=      5-min Rain = 0
KLO1 160648Z 11005KT 12/12 A2985 RMK A01 T01210121  RH  100%=      5-min Rain = 0
KLO1 160649Z 11004KT 12/12 A2985 RMK A01 T01210121  RH  100%=      5-min Rain = 0
KLO1 160650Z 12004KT 12/12 A2985 RMK A01 T01210121  RH  100%=      5-min Rain = 0
KLO1 160651Z 11003KT 12/12 A2985 RMK A01 T01210121  RH  100%=      5-min Rain = 0
KLO1 160652Z 11003KT 12/12 A2985 RMK A01 T01210121  RH  100%=      5-min Rain = 0
KLO1 160653Z 11004KT 12/12 A2985 RMK A01 T01210121  RH  100%=      5-min Rain = 0
KLO1 160654Z 11004KT 12/12 A2984 RMK A01 T01210121  RH  100%=      5-min Rain = 0
KLO1 160655Z 11004KT 12/12 A2984 RMK A01 T01210122  RH  100%=      5-min Rain = 0
KLO1 160656Z 11004KT 12/12 A2984 RMK A01 T01220122  RH  100%=      5-min Rain = 0
KLO1 160657Z 11005KT 12/12 A2984 RMK A01 T01220122  RH  100%=      5-min Rain = 0
KLO1 160658Z 11005KT 12/12 A2984 RMK A01 T01220122  RH  100%=      5-min Rain = 0
KLO1 160659Z 11004KT 12/12 A2984 RMK A01 T01220122  RH  100%=      5-min Rain = 0
KLO1 160700Z 12004KT 12/12 A2984 RMK A01 T01220122  RH  100%=      5-min Rain = 0.01
KLO1 160701Z 12005KT 12/12 A2984 RMK A01 T01230123  RH  100%=      5-min Rain = 0
KLO1 160702Z 12004KT 12/12 A2984 RMK A01 T01230123  RH  100%=      5-min Rain = 0
KLO1 160703Z 12004KT 12/12 A2984 RMK A01 T01230123  RH  100%=      5-min Rain = 0
KLO1 160704Z 11004KT 12/12 A2984 RMK A01 T01230123  RH  100%=      5-min Rain = 0
KLO1 160705Z 11004KT 12/12 A2984 RMK A01 T01230123  RH  100%=      5-min Rain = 0
KLO1 160706Z 11004KT 12/12 A2984 RMK A01 T01240124  RH  100%=      5-min Rain = 0
KLO1 160707Z 12003KT 12/12 A2984 RMK A01 T01240124  RH  100%=      5-min Rain = 0
KLO1 160708Z 12004KT 12/13 A2984 RMK A01 T01240125  RH  100%=      5-min Rain = 0
KLO1 160709Z 12003KT 13/13 A2984 RMK A01 T01250125  RH  100%=      5-min Rain = 0
KLO1 160710Z 12003KT 13/13 A2984 RMK A01 T01250125  RH  100%=      5-min Rain = 0
KLO1 160711Z 12002KT 13/13 A2984 RMK A01 T01250125  RH  100%=      5-min Rain = 0
KLO1 160712Z 11003KT 13/13 A2984 RMK A01 T01260126  RH  100%=      5-min Rain = 0
KLO1 160713Z 11002KT 13/13 A2984 RMK A01 T01260126  RH  100%=      5-min Rain = 0
KLO1 160714Z 10002KT 13/13 A2984 RMK A01 T01270127  RH  100%=      5-min Rain = 0
KLO1 160715Z 10002KT 13/13 A2984 RMK A01 T01270127  RH  100%=      5-min Rain = 0
KLO1 160716Z 10002KT 13/13 A2984 RMK A01 T01270127  RH  100%=      5-min Rain = 0
KLO1 160717Z 10002KT 13/13 A2984 RMK A01 T01270127  RH  100%=      5-min Rain = 0
KLO1 160718Z 09001KT 13/13 A2984 RMK A01 T01280128  RH  100%=      5-min Rain = 0
KLO1 160719Z 10002KT 13/13 A2984 RMK A01 T01280128  RH  100%=      5-min Rain = 0
KLO1 160720Z 10002KT 13/13 A2984 RMK A01 T01280128  RH  100%=      5-min Rain = 0
KLO1 160721Z 12004KT 13/13 A2984 RMK A01 T01290129  RH  100%=      5-min Rain = 0
KLO1 160722Z 12003KT 13/13 A2984 RMK A01 T01300130  RH  100%=      5-min Rain = 0
KLO1 160723Z 13004KT 13/13 A2984 RMK A01 T01310131  RH  100%=      5-min Rain = 0
KLO1 160724Z 13003KT 13/13 A2984 RMK A01 T01310131  RH  100%=      5-min Rain = 0
KLO1 160725Z 12004KT 13/13 A2983 RMK A01 T01310131  RH  100%=      5-min Rain = 0
KLO1 160726Z 13004KT 13/13 A2983 RMK A01 T01310132  RH  100%=      5-min Rain = 0
KLO1 160727Z 13004KT 13/13 A2983 RMK A01 T01310131  RH  100%=      5-min Rain = 0
KLO1 160728Z 13004KT 13/13 A2983 RMK A01 T01310131  RH  100%=      5-min Rain = 0
KLO1 160729Z 13004KT 13/13 A2983 RMK A01 T01320132  RH  100%=      5-min Rain = 0
KLO1 160730Z 13004KT 13/13 A2983 RMK A01 T01320132  RH  100%=      5-min Rain = 0
KLO1 160731Z 13004KT 13/13 A2983 RMK A01 T01320132  RH  100%=      5-min Rain = 0
KLO1 160732Z 13005KT 13/13 A2983 RMK A01 T01320132  RH  100%=      5-min Rain = 0
KLO1 160733Z 13005KT 13/13 A2983 RMK A01 T01320132  RH  100%=      5-min Rain = 0
KLO1 160734Z 13005KT 13/13 A2983 RMK A01 T01320132  RH  100%=      5-min Rain = 0
KLO1 160735Z 13005KT 13/13 A2983 RMK A01 T01320132  RH  100%=      5-min Rain = 0
KLO1 160736Z 13005KT 13/13 A2983 RMK A01 T01320132  RH  100%=      5-min Rain = 0
KLO1 160737Z 13004KT 13/13 A2983 RMK A01 T01320132  RH  100%=      5-min Rain = 0
KLO1 160738Z 14004KT 13/13 A2983 RMK A01 T01320132  RH  100%=      5-min Rain = 0
KLO1 160739Z 13005KT 13/13 A2983 RMK A01 T01320132  RH  100%=      5-min Rain = 0
KLO1 160740Z 13005KT 13/13 A2983 RMK A01 T01320132  RH  100%=      5-min Rain = 0
KLO1 160741Z 13006KT 13/13 A2983 RMK A01 T01320132  RH  100%=      5-min Rain = 0
KLO1 160742Z 13005KT 13/13 A2983 RMK A01 T01320132  RH  100%=      5-min Rain = 0
KLO1 160743Z 13004KT 13/13 A2983 RMK A01 T01320132  RH  100%=      5-min Rain = 0
KLO1 160744Z 13004KT 13/13 A2983 RMK A01 T01320132  RH  100%=      5-min Rain = 0
KLO1 160745Z 13005KT 13/13 A2983 RMK A01 T01320132  RH  100%=      5-min Rain = 0
KLO1 160746Z 13004KT 13/13 A2983 RMK A01 T01320132  RH  100%=      5-min Rain = 0
KLO1 160747Z 12004KT 13/13 A2983 RMK A01 T01320132  RH  100%=      5-min Rain = 0
KLO1 160748Z 13005KT 13/13 A2982 RMK A01 T01320133  RH  100%=      5-min Rain = 0
KLO1 160749Z 13005KT 13/13 A2982 RMK A01 T01320132  RH  100%=      5-min Rain = 0
KLO1 160750Z 13004KT 13/13 A2982 RMK A01 T01320132  RH  100%=      5-min Rain = 0
KLO1 160751Z 12004KT 13/13 A2982 RMK A01 T01320132  RH  100%=      5-min Rain = 0
KLO1 160752Z 13004KT 13/13 A2982 RMK A01 T01320132  RH  100%=      5-min Rain = 0
KLO1 160753Z 12004KT 13/13 A2982 RMK A01 T01330133  RH  100%=      5-min Rain = 0
KLO1 160754Z 12006KT 13/13 A2982 RMK A01 T01330133  RH  100%=      5-min Rain = 0
KLO1 160755Z 13006KT 13/13 A2982 RMK A01 T01330133  RH  100%=      5-min Rain = 0
KLO1 160756Z 14006KT 13/13 A2982 RMK A01 T01330133  RH  100%=      5-min Rain = 0
KLO1 160757Z 13006KT 13/13 A2982 RMK A01 T01330133  RH  100%=      5-min Rain = 0
KLO1 160758Z 13006KT 13/13 A2982 RMK A01 T01330133  RH  100%=      5-min Rain = 0
KLO1 160759Z 14006KT 13/13 A2982 RMK A01 T01330133  RH  100%=      5-min Rain = 0
KLO1 160800Z 13005KT 13/13 A2982 RMK A01 T01330133  RH  100%=      5-min Rain = 0
KLO1 160801Z 13006KT 13/13 A2982 RMK A01 T01330133  RH  100%=      5-min Rain = 0
KLO1 160802Z 13006KT 13/13 A2982 RMK A01 T01320133  RH  100%=      5-min Rain = 0
KLO1 160803Z 14005KT 13/13 A2982 RMK A01 T01330133  RH  100%=      5-min Rain = 0
KLO1 160804Z 13004KT 13/13 A2982 RMK A01 T01320133  RH  100%=      5-min Rain = 0
KLO1 160805Z 14003KT 13/13 A2982 RMK A01 T01330133  RH  100%=      5-min Rain = 0
KLO1 160806Z 14002KT 13/13 A2982 RMK A01 T01330133  RH  100%=      5-min Rain = 0
KLO1 160807Z 13003KT 13/13 A2982 RMK A01 T01330133  RH  100%=      5-min Rain = 0
KLO1 160808Z 12003KT 13/13 A2982 RMK A01 T01330133  RH  100%=      5-min Rain = 0
KLO1 160809Z 13003KT 13/13 A2982 RMK A01 T01330133  RH  100%=      5-min Rain = 0
KLO1 160810Z 14003KT 13/13 A2982 RMK A01 T01330133  RH  100%=      5-min Rain = 0
KLO1 160811Z 13002KT 13/13 A2982 RMK A01 T01330133  RH  100%=      5-min Rain = 0
KLO1 160812Z 13002KT 13/13 A2982 RMK A01 T01330133  RH  100%=      5-min Rain = 0
KLO1 160813Z 12003KT 13/13 A2982 RMK A01 T01330133  RH  100%=      5-min Rain = 0
KLO1 160814Z 14003KT 13/13 A2982 RMK A01 T01330133  RH  100%=      5-min Rain = 0
KLO1 160815Z 14004KT 13/13 A2982 RMK A01 T01330133  RH  100%=      5-min Rain = 0
KLO1 160816Z 14005KT 13/13 A2982 RMK A01 T01330133  RH  100%=      5-min Rain = 0
KLO1 160817Z 13004KT 13/13 A2982 RMK A01 T01320133  RH  100%=      5-min Rain = 0
KLO1 160818Z 13005KT 13/13 A2982 RMK A01 T01320133  RH  100%=      5-min Rain = 0
KLO1 160819Z 14004KT 13/13 A2982 RMK A01 T01320132  RH  100%=      5-min Rain = 0
KLO1 160820Z 13005KT 13/13 A2982 RMK A01 T01330133  RH  100%=      5-min Rain = 0
KLO1 160821Z 13005KT 13/13 A2982 RMK A01 T01330133  RH  100%=      5-min Rain = 0
KLO1 160822Z 14005KT 13/13 A2982 RMK A01 T01330133  RH  100%=      5-min Rain = 0
KLO1 160823Z 13004KT 13/13 A2982 RMK A01 T01330133  RH  100%=      5-min Rain = 0
KLO1 160824Z 13004KT 13/13 A2982 RMK A01 T01330133  RH  100%=      5-min Rain = 0
KLO1 160825Z 13004KT 13/13 A2982 RMK A01 T01330133  RH  100%=      5-min Rain = 0
KLO1 160826Z 12003KT 13/13 A2982 RMK A01 T01320133  RH  100%=      5-min Rain = 0
KLO1 160827Z 12003KT 13/13 A2982 RMK A01 T01330133  RH  100%=      5-min Rain = 0
KLO1 160828Z 11003KT 13/13 A2982 RMK A01 T01330133  RH  100%=      5-min Rain = 0
KLO1 160829Z 11003KT 13/13 A2982 RMK A01 T01330133  RH  100%=      5-min Rain = 0
KLO1 160830Z 10003KT 13/13 A2982 RMK A01 T01330133  RH  100%=      5-min Rain = 0
KLO1 160831Z 10003KT 13/13 A2982 RMK A01 T01330133  RH  100%=      5-min Rain = 0
KLO1 160832Z 11003KT 13/13 A2982 RMK A01 T01330133  RH  100%=      5-min Rain = 0
KLO1 160833Z 10003KT 13/13 A2982 RMK A01 T01330133  RH  100%=      5-min Rain = 0
KLO1 160834Z 11003KT 13/13 A2982 RMK A01 T01330133  RH  100%=      5-min Rain = 0
KLO1 160835Z 11003KT 13/13 A2981 RMK A01 T01330133  RH  100%=      5-min Rain = 0
KLO1 160836Z 11004KT 13/13 A2981 RMK A01 T01330133  RH  100%=      5-min Rain = 0
KLO1 160837Z 11003KT 13/13 A2981 RMK A01 T01330133  RH  100%=      5-min Rain = 0
KLO1 160838Z 11004KT 13/13 A2981 RMK A01 T01330133  RH  100%=      5-min Rain = 0
KLO1 160839Z 11004KT 13/13 A2981 RMK A01 T01330133  RH  100%=      5-min Rain = 0
KLO1 160840Z 12004KT 13/13 A2981 RMK A01 T01330133  RH  100%=      5-min Rain = 0
KLO1 160841Z 12004KT 13/13 A2982 RMK A01 T01330133  RH  100%=      5-min Rain = 0
KLO1 160842Z 12003KT 13/13 A2982 RMK A01 T01330133  RH  100%=      5-min Rain = 0
KLO1 160843Z 12003KT 13/13 A2982 RMK A01 T01330133  RH  100%=      5-min Rain = 0
KLO1 160844Z 12003KT 13/13 A2982 RMK A01 T01330133  RH  100%=      5-min Rain = 0
KLO1 160845Z 10002KT 13/13 A2982 RMK A01 T01330133  RH  100%=      5-min Rain = 0
KLO1 160846Z 09002KT 13/13 A2982 RMK A01 T01330133  RH  100%=      5-min Rain = 0
KLO1 160847Z 09002KT 13/13 A2982 RMK A01 T01330133  RH  100%=      5-min Rain = 0
KLO1 160848Z 09002KT 13/13 A2982 RMK A01 T01330133  RH  100%=      5-min Rain = 0
KLO1 160849Z 09002KT 13/13 A2982 RMK A01 T01330133  RH  100%=      5-min Rain = 0
KLO1 160850Z 09002KT 13/13 A2982 RMK A01 T01330133  RH  100%=      5-min Rain = 0
KLO1 160851Z 10002KT 13/13 A2982 RMK A01 T01330133  RH  100%=      5-min Rain = 0
KLO1 160852Z 09002KT 13/13 A2982 RMK A01 T01330133  RH  100%=      5-min Rain = 0
KLO1 160853Z 09002KT 13/13 A2982 RMK A01 T01330133  RH  100%=      5-min Rain = 0
KLO1 160854Z 09002KT 13/13 A2981 RMK A01 T01330133  RH  100%=      5-min Rain = 0
KLO1 160855Z 09003KT 13/13 A2981 RMK A01 T01330133  RH  100%=      5-min Rain = 0
KLO1 160856Z 09002KT 13/13 A2981 RMK A01 T01330133  RH  100%=      5-min Rain = 0
KLO1 160857Z 09002KT 13/13 A2981 RMK A01 T01330133  RH  100%=      5-min Rain = 0
KLO1 160858Z 10002KT 13/13 A2982 RMK A01 T01330133  RH  100%=      5-min Rain = 0
KLO1 160859Z 10002KT 13/13 A2982 RMK A01 T01330133  RH  100%=      5-min Rain = 0
KLO1 160900Z 10002KT 13/13 A2982 RMK A01 T01330133  RH  100%=      5-min Rain = 0
KLO1 160901Z 10002KT 13/13 A2982 RMK A01 T01330133  RH  100%=      5-min Rain = 0
KLO1 160902Z 10001KT 13/13 A2982 RMK A01 T01330133  RH  100%=      5-min Rain = 0
KLO1 160903Z 09000KT 13/13 A2982 RMK A01 T01330133  RH  100%=      5-min Rain = 0
KLO1 160904Z 09001KT 13/13 A2982 RMK A01 T01330133  RH  100%=      5-min Rain = 0
KLO1 160905Z 08001KT 13/13 A2982 RMK A01 T01330133  RH  100%=      5-min Rain = 0
KLO1 160906Z 09000KT 13/13 A2982 RMK A01 T01330133  RH  100%=      5-min Rain = 0
KLO1 160907Z 00000KT 13/13 A2982 RMK A01 T01330133  RH  100%=      5-min Rain = 0
KLO1 160908Z 00000KT 13/13 A2982 RMK A01 T01330133  RH  100%=      5-min Rain = 0
KLO1 160909Z 00000KT 13/13 A2982 RMK A01 T01330133  RH  100%=      5-min Rain = 0
KLO1 160910Z 00000KT 13/13 A2982 RMK A01 T01330133  RH  100%=      5-min Rain = 0
KLO1 160911Z 00000KT 13/13 A2982 RMK A01 T01330133  RH  100%=      5-min Rain = 0
KLO1 160912Z 00000KT 13/13 A2982 RMK A01 T01330133  RH  100%=      5-min Rain = 0
KLO1 160913Z 00000KT 13/13 A2982 RMK A01 T01330133  RH  100%=      5-min Rain = 0
KLO1 160914Z 00000KT 13/13 A2982 RMK A01 T01330133  RH  100%=      5-min Rain = 0
KLO1 160915Z 00000KT 13/13 A2982 RMK A01 T01330133  RH  100%=      5-min Rain = 0
KLO1 160916Z 00000KT 13/13 A2982 RMK A01 T01330133  RH  100%=      5-min Rain = 0
KLO1 160917Z 00000KT 13/13 A2982 RMK A01 T01330133  RH  100%=      5-min Rain = 0
KLO1 160918Z 00000KT 13/13 A2982 RMK A01 T01330133  RH  100%=      5-min Rain = 0
KLO1 160919Z 00000KT 13/13 A2982 RMK A01 T01330133  RH  100%=      5-min Rain = 0
KLO1 160920Z 00000KT 13/13 A2982 RMK A01 T01330133  RH  100%=      5-min Rain = 0
KLO1 160921Z 00000KT 13/13 A2982 RMK A01 T01330133  RH  100%=      5-min Rain = 0
KLO1 160922Z 00000KT 13/13 A2982 RMK A01 T01330133  RH  100%=      5-min Rain = 0
KLO1 160923Z 00000KT 13/13 A2982 RMK A01 T01330133  RH  100%=      5-min Rain = 0
KLO1 160924Z 00000KT 13/13 A2982 RMK A01 T01330133  RH  100%=      5-min Rain = 0
KLO1 160925Z 00000KT 13/13 A2982 RMK A01 T01330133  RH  100%=      5-min Rain = 0
KLO1 160926Z 00000KT 13/13 A2982 RMK A01 T01330133  RH  100%=      5-min Rain = 0
KLO1 160927Z 00000KT 13/13 A2982 RMK A01 T01330133  RH  100%=      5-min Rain = 0
KLO1 160928Z 00000KT 13/13 A2982 RMK A01 T01330133  RH  100%=      5-min Rain = 0
KLO1 160929Z 11000KT 13/13 A2982 RMK A01 T01330133  RH  100%=      5-min Rain = 0
KLO1 160930Z 11001KT 13/13 A2982 RMK A01 T01330133  RH  100%=      5-min Rain = 0
KLO1 160931Z 10002KT 13/13 A2982 RMK A01 T01330133  RH  100%=      5-min Rain = 0
KLO1 160932Z 11002KT 13/13 A2982 RMK A01 T01330133  RH  100%=      5-min Rain = 0.01
KLO1 160933Z 11002KT 13/13 A2981 RMK A01 T01330133  RH  100%=      5-min Rain = 0
KLO1 160934Z 11003KT 13/13 A2981 RMK A01 T01330133  RH  100%=      5-min Rain = 0
KLO1 160935Z 11003KT 13/13 A2981 RMK A01 T01340134  RH  100%=      5-min Rain = 0
KLO1 160936Z 11003KT 13/13 A2981 RMK A01 T01330134  RH  100%=      5-min Rain = 0
KLO1 160937Z 12003KT 13/13 A2981 RMK A01 T01330134  RH  100%=      5-min Rain = 0
KLO1 160938Z 12003KT 13/13 A2981 RMK A01 T01330134  RH  100%=      5-min Rain = 0
KLO1 160939Z 12003KT 13/13 A2981 RMK A01 T01330134  RH  100%=      5-min Rain = 0
KLO1 160940Z 12003KT 13/13 A2981 RMK A01 T01340134  RH  100%=      5-min Rain = 0
KLO1 160941Z 12003KT 13/13 A2981 RMK A01 T01330134  RH  100%=      5-min Rain = 0
KLO1 160942Z 12003KT 13/13 A2981 RMK A01 T01340134  RH  100%=      5-min Rain = 0
KLO1 160943Z 12003KT 13/13 A2981 RMK A01 T01340134  RH  100%=      5-min Rain = 0
KLO1 160944Z 11003KT 13/13 A2981 RMK A01 T01340134  RH  100%=      5-min Rain = 0
KLO1 160945Z 12003KT 13/13 A2981 RMK A01 T01340134  RH  100%=      5-min Rain = 0
KLO1 160946Z 11003KT 13/13 A2981 RMK A01 T01340134  RH  100%=      5-min Rain = 0
KLO1 160947Z 11004KT 13/13 A2981 RMK A01 T01330134  RH  100%=      5-min Rain = 0
KLO1 160948Z 12003KT 13/13 A2981 RMK A01 T01340134  RH  100%=      5-min Rain = 0
KLO1 160949Z 11003KT 13/13 A2981 RMK A01 T01340134  RH  100%=      5-min Rain = 0
KLO1 160950Z 12003KT 13/13 A2981 RMK A01 T01340134  RH  100%=      5-min Rain = 0
KLO1 160951Z 12002KT 13/13 A2981 RMK A01 T01340134  RH  100%=      5-min Rain = 0
KLO1 160952Z 12002KT 13/13 A2981 RMK A01 T01340134  RH  100%=      5-min Rain = 0
KLO1 160953Z 12002KT 13/13 A2981 RMK A01 T01340134  RH  100%=      5-min Rain = 0
KLO1 160954Z 12003KT 13/13 A2981 RMK A01 T01340134  RH  100%=      5-min Rain = 0
KLO1 160955Z 12003KT 13/13 A2981 RMK A01 T01340134  RH  100%=      5-min Rain = 0
KLO1 160956Z 12003KT 13/13 A2981 RMK A01 T01340134  RH  100%=      5-min Rain = 0
KLO1 160957Z 12004KT 13/13 A2981 RMK A01 T01340134  RH  100%=      5-min Rain = 0
KLO1 160958Z 12003KT 13/13 A2981 RMK A01 T01340134  RH  100%=      5-min Rain = 0
KLO1 160959Z 12003KT 13/13 A2981 RMK A01 T01340134  RH  100%=      5-min Rain = 0
KLO1 161000Z 12003KT 13/13 A2981 RMK A01 T01340134  RH  100%=      5-min Rain = 0
KLO1 161001Z 12003KT 13/13 A2981 RMK A01 T01340134  RH  100%=      5-min Rain = 0
KLO1 161002Z 13003KT 13/13 A2981 RMK A01 T01340134  RH  100%=      5-min Rain = 0
KLO1 161003Z 13002KT 13/13 A2981 RMK A01 T01340134  RH  100%=      5-min Rain = 0
KLO1 161004Z 13002KT 13/13 A2981 RMK A01 T01340134  RH  100%=      5-min Rain = 0
KLO1 161005Z 13002KT 13/13 A2981 RMK A01 T01340134  RH  100%=      5-min Rain = 0
KLO1 161006Z 14002KT 13/13 A2981 RMK A01 T01340134  RH  100%=      5-min Rain = 0
KLO1 161007Z 14002KT 13/13 A2981 RMK A01 T01340134  RH  100%=      5-min Rain = 0
KLO1 161008Z 14002KT 13/13 A2981 RMK A01 T01340134  RH  100%=      5-min Rain = 0
KLO1 161009Z 13002KT 13/13 A2981 RMK A01 T01340134  RH  100%=      5-min Rain = 0
KLO1 161010Z 13002KT 13/13 A2981 RMK A01 T01340134  RH  100%=      5-min Rain = 0
KLO1 161011Z 13002KT 13/13 A2981 RMK A01 T01340134  RH  100%=      5-min Rain = 0
KLO1 161012Z 13001KT 13/13 A2981 RMK A01 T01340134  RH  100%=      5-min Rain = 0
KLO1 161013Z 12001KT 13/13 A2981 RMK A01 T01340134  RH  100%=      5-min Rain = 0
KLO1 161014Z 12000KT 13/13 A2981 RMK A01 T01340134  RH  100%=      5-min Rain = 0
KLO1 161015Z 09000KT 13/13 A2981 RMK A01 T01340134  RH  100%=      5-min Rain = 0
KLO1 161016Z 07000KT 13/13 A2981 RMK A01 T01340134  RH  100%=      5-min Rain = 0
KLO1 161017Z 07000KT 13/13 A2981 RMK A01 T01340134  RH  100%=      5-min Rain = 0
KLO1 161018Z 06000KT 13/13 A2981 RMK A01 T01340134  RH  100%=      5-min Rain = 0
KLO1 161019Z 08001KT 13/13 A2981 RMK A01 T01340134  RH  100%=      5-min Rain = 0
KLO1 161020Z 07001KT 13/13 A2981 RMK A01 T01340134  RH  100%=      5-min Rain = 0
KLO1 161021Z 07001KT 13/13 A2981 RMK A01 T01340134  RH  100%=      5-min Rain = 0
KLO1 161022Z 07001KT 13/13 A2981 RMK A01 T01340134  RH  100%=      5-min Rain = 0
KLO1 161023Z 07001KT 13/13 A2981 RMK A01 T01340134  RH  100%=      5-min Rain = 0
KLO1 161024Z 07001KT 13/13 A2981 RMK A01 T01340134  RH  100%=      5-min Rain = 0
KLO1 161025Z 07001KT 13/13 A2981 RMK A01 T01340134  RH  100%=      5-min Rain = 0
KLO1 161026Z 08000KT 13/13 A2981 RMK A01 T01340134  RH  100%=      5-min Rain = 0
KLO1 161027Z 09001KT 13/13 A2981 RMK A01 T01340134  RH  100%=      5-min Rain = 0
KLO1 161028Z 10001KT 13/13 A2981 RMK A01 T01340134  RH  100%=      5-min Rain = 0
KLO1 161029Z 10001KT 13/13 A2981 RMK A01 T01340134  RH  100%=      5-min Rain = 0
KLO1 161030Z 10001KT 13/13 A2981 RMK A01 T01340134  RH  100%=      5-min Rain = 0
KLO1 161031Z 11000KT 13/13 A2981 RMK A01 T01340134  RH  100%=      5-min Rain = 0
KLO1 161032Z 10001KT 13/13 A2981 RMK A01 T01340134  RH  100%=      5-min Rain = 0
KLO1 161033Z 09001KT 13/13 A2981 RMK A01 T01340134  RH  100%=      5-min Rain = 0
KLO1 161034Z 09001KT 13/13 A2981 RMK A01 T01340134  RH  100%=      5-min Rain = 0
KLO1 161035Z 09001KT 13/13 A2981 RMK A01 T01340134  RH  100%=      5-min Rain = 0
KLO1 161036Z 07001KT 13/13 A2981 RMK A01 T01340134  RH  100%=      5-min Rain = 0
KLO1 161037Z 06002KT 13/13 A2981 RMK A01 T01340134  RH  100%=      5-min Rain = 0
KLO1 161038Z 05002KT 13/13 A2981 RMK A01 T01340134  RH  100%=      5-min Rain = 0
KLO1 161039Z 05001KT 13/13 A2981 RMK A01 T01340134  RH  100%=      5-min Rain = 0
KLO1 161040Z 04001KT 13/13 A2981 RMK A01 T01340134  RH  100%=      5-min Rain = 0
KLO1 161041Z 04001KT 13/13 A2981 RMK A01 T01340134  RH  100%=      5-min Rain = 0
KLO1 161042Z 04002KT 13/13 A2981 RMK A01 T01340134  RH  100%=      5-min Rain = 0
KLO1 161043Z 04002KT 13/13 A2981 RMK A01 T01340134  RH  100%=      5-min Rain = 0
KLO1 161044Z 04002KT 13/13 A2981 RMK A01 T01340134  RH  100%=      5-min Rain = 0
KLO1 161045Z 04002KT 13/13 A2981 RMK A01 T01340134  RH  100%=      5-min Rain = 0
KLO1 161046Z 04002KT 13/13 A2981 RMK A01 T01340134  RH  100%=      5-min Rain = 0
KLO1 161047Z 03002KT 13/13 A2981 RMK A01 T01340134  RH  100%=      5-min Rain = 0
KLO1 161048Z 03002KT 13/13 A2981 RMK A01 T01340134  RH  100%=      5-min Rain = 0
KLO1 161049Z 02003KT 13/13 A2981 RMK A01 T01340134  RH  100%=      5-min Rain = 0
KLO1 161050Z 01003KT 13/13 A2981 RMK A01 T01340134  RH  100%=      5-min Rain = 0
KLO1 161051Z 01003KT 13/13 A2981 RMK A01 T01340134  RH  100%=      5-min Rain = 0
KLO1 161052Z 02003KT 13/13 A2981 RMK A01 T01340134  RH  100%=      5-min Rain = 0
KLO1 161053Z 02003KT 13/13 A2981 RMK A01 T01340134  RH  100%=      5-min Rain = 0
KLO1 161054Z 02003KT 13/13 A2981 RMK A01 T01340134  RH  100%=      5-min Rain = 0
KLO1 161055Z 02002KT 13/13 A2981 RMK A01 T01340134  RH  100%=      5-min Rain = 0
KLO1 161056Z 02002KT 13/13 A2981 RMK A01 T01340134  RH  100%=      5-min Rain = 0
KLO1 161057Z 03002KT 13/13 A2981 RMK A01 T01340134  RH  100%=      5-min Rain = 0
KLO1 161058Z 02002KT 13/13 A2981 RMK A01 T01340134  RH  100%=      5-min Rain = 0
KLO1 161059Z 03002KT 13/13 A2981 RMK A01 T01340134  RH  100%=      5-min Rain = 0
KLO1 161100Z 01002KT 13/13 A2981 RMK A01 T01340134  RH  100%=      5-min Rain = 0
KLO1 161101Z 01002KT 13/13 A2981 RMK A01 T01340134  RH  100%=      5-min Rain = 0
KLO1 161102Z 35002KT 13/13 A2981 RMK A01 T01340134  RH  100%=      5-min Rain = 0
KLO1 161103Z 35002KT 13/13 A2981 RMK A01 T01340134  RH  100%=      5-min Rain = 0
KLO1 161104Z 35002KT 13/13 A2981 RMK A01 T01340134  RH  100%=      5-min Rain = 0
KLO1 161105Z 00001KT 13/13 A2981 RMK A01 T01340134  RH  100%=      5-min Rain = 0
KLO1 161106Z 01000KT 13/13 A2981 RMK A01 T01340134  RH  100%=      5-min Rain = 0
KLO1 161107Z 00000KT 13/13 A2981 RMK A01 T01340134  RH  100%=      5-min Rain = 0.01
KLO1 161108Z 01000KT 13/13 A2981 RMK A01 T01340134  RH  100%=      5-min Rain = 0
KLO1 161109Z 02001KT 13/13 A2981 RMK A01 T01340134  RH  100%=      5-min Rain = 0
KLO1 161110Z 03001KT 13/13 A2981 RMK A01 T01340134  RH  100%=      5-min Rain = 0
KLO1 161111Z 03001KT 13/13 A2981 RMK A01 T01340134  RH  100%=      5-min Rain = 0
KLO1 161112Z 04001KT 13/13 A2981 RMK A01 T01340134  RH  100%=      5-min Rain = 0
KLO1 161113Z 05001KT 13/13 A2981 RMK A01 T01340134  RH  100%=      5-min Rain = 0
KLO1 161114Z 05001KT 13/13 A2981 RMK A01 T01330133  RH  100%=      5-min Rain = 0
KLO1 161115Z 05001KT 13/13 A2981 RMK A01 T01340134  RH  100%=      5-min Rain = 0
KLO1 161116Z 05001KT 13/13 A2981 RMK A01 T01330133  RH  100%=      5-min Rain = 0
KLO1 161117Z 05001KT 13/13 A2981 RMK A01 T01330133  RH  100%=      5-min Rain = 0
KLO1 161118Z 05001KT 13/13 A2981 RMK A01 T01330134  RH  100%=      5-min Rain = 0
KLO1 161119Z 06001KT 13/13 A2981 RMK A01 T01340134  RH  100%=      5-min Rain = 0
KLO1 161120Z 06001KT 13/13 A2981 RMK A01 T01340134  RH  100%=      5-min Rain = 0
KLO1 161121Z 06001KT 13/13 A2981 RMK A01 T01340134  RH  100%=      5-min Rain = 0
KLO1 161122Z 06001KT 13/13 A2981 RMK A01 T01340134  RH  100%=      5-min Rain = 0
KLO1 161123Z 06001KT 13/13 A2981 RMK A01 T01340134  RH  100%=      5-min Rain = 0
KLO1 161124Z 06001KT 13/13 A2981 RMK A01 T01340134  RH  100%=      5-min Rain = 0
KLO1 161125Z 06001KT 13/13 A2981 RMK A01 T01340134  RH  100%=      5-min Rain = 0
KLO1 161126Z 07001KT 13/13 A2981 RMK A01 T01340134  RH  100%=      5-min Rain = 0
KLO1 161127Z 07001KT 13/13 A2981 RMK A01 T01340134  RH  100%=      5-min Rain = 0
KLO1 161128Z 07001KT 13/13 A2981 RMK A01 T01340134  RH  100%=      5-min Rain = 0
KLO1 161129Z 07001KT 13/13 A2981 RMK A01 T01340134  RH  100%=      5-min Rain = 0
KLO1 161130Z 06001KT 13/13 A2981 RMK A01 T01340134  RH  100%=      5-min Rain = 0
KLO1 161131Z 04001KT 13/13 A2981 RMK A01 T01340134  RH  100%=      5-min Rain = 0
KLO1 161132Z 02001KT 13/13 A2981 RMK A01 T01340134  RH  100%=      5-min Rain = 0
KLO1 161133Z 35002KT 13/13 A2981 RMK A01 T01340134  RH  100%=      5-min Rain = 0
KLO1 161134Z 34004KT 13/13 A2982 RMK A01 T01340134  RH  100%=      5-min Rain = 0
KLO1 161135Z 33007KT 13/13 A2983 RMK A01 T01340134  RH  100%=      5-min Rain = 0
KLO1 161136Z 33011KT 13/14 A2983 RMK A01 T01340135  RH  100%=      5-min Rain = 0
KLO1 161137Z 33011KT 14/14 A2984 RMK A01 T01350135  RH  100%=      5-min Rain = 0
KLO1 161138Z 33011KT 14/14 A2984 RMK A01 T01350135  RH  100%=      5-min Rain = 0
KLO1 161139Z 34011KT 14/14 A2984 RMK A01 T01350135  RH  100%=      5-min Rain = 0
KLO1 161140Z 34009KT 13/13 A2983 RMK A01 T01340134  RH  100%=      5-min Rain = 0
KLO1 161141Z 34009KT 13/13 A2983 RMK A01 T01340134  RH  100%=      5-min Rain = 0
KLO1 161142Z 34010KT 13/13 A2983 RMK A01 T01330134  RH  100%=      5-min Rain = 0
KLO1 161143Z 34009KT 13/13 A2983 RMK A01 T01330133  RH  100%=      5-min Rain = 0
KLO1 161144Z 34009KT 13/13 A2984 RMK A01 T01330133  RH  100%=      5-min Rain = 0
KLO1 161145Z 34009KT 13/13 A2984 RMK A01 T01330133  RH  100%=      5-min Rain = 0
KLO1 161146Z 34008KT 13/13 A2984 RMK A01 T01330133  RH  100%=      5-min Rain = 0
KLO1 161147Z 35006KT 13/13 A2983 RMK A01 T01330133  RH  100%=      5-min Rain = 0
KLO1 161148Z 34009KT 13/13 A2983 RMK A01 T01330133  RH  100%=      5-min Rain = 0
KLO1 161149Z 35009KT 13/13 A2983 RMK A01 T01330133  RH  100%=      5-min Rain = 0
KLO1 161150Z 00009KT 13/13 A2983 RMK A01 T01320132  RH  100%=      5-min Rain = 0
KLO1 161151Z 36010KT 13/13 A2983 RMK A01 T01320132  RH  100%=      5-min Rain = 0
KLO1 161152Z 36010KT 13/13 A2984 RMK A01 T01310131  RH  100%=      5-min Rain = 0
KLO1 161153Z 36010KT 13/13 A2984 RMK A01 T01300131  RH  100%=      5-min Rain = 0
KLO1 161154Z 35009KT 13/13 A2983 RMK A01 T01300130  RH  100%=      5-min Rain = 0
KLO1 161155Z 36008KT 13/13 A2983 RMK A01 T01300130  RH  100%=      5-min Rain = 0
KLO1 161156Z 36008KT 13/13 A2983 RMK A01 T01290130  RH  100%=      5-min Rain = 0
KLO1 161157Z 00009KT 13/13 A2983 RMK A01 T01290129  RH  100%=      5-min Rain = 0
KLO1 161158Z 36010KT 13/13 A2984 RMK A01 T01300130  RH  100%=      5-min Rain = 0
KLO1 161159Z 36010KT 13/13 A2984 RMK A01 T01290129  RH  100%=      5-min Rain = 0
KLO1 161200Z 36009KT 13/13 A2984 RMK A01 T01290129  RH  100%=      5-min Rain = 0
KLO1 161201Z 00009KT 13/13 A2984 RMK A01 T01290129  RH  100%=      5-min Rain = 0
KLO1 161202Z 01011KT 13/13 A2984 RMK A01 T01290129  RH  100%=      5-min Rain = 0
KLO1 161203Z 36009KT 13/13 A2984 RMK A01 T01280129  RH  100%=      5-min Rain = 0
KLO1 161204Z 00010KT 13/13 A2984 RMK A01 T01280128  RH  100%=      5-min Rain = 0
KLO1 161205Z 01010KT 13/13 A2984 RMK A01 T01280128  RH  100%=      5-min Rain = 0
KLO1 161206Z 00010KT 13/13 A2984 RMK A01 T01280128  RH  100%=      5-min Rain = 0
KLO1 161207Z 36010KT 13/13 A2984 RMK A01 T01280128  RH  100%=      5-min Rain = 0
KLO1 161208Z 36010KT 13/13 A2984 RMK A01 T01270128  RH  100%=      5-min Rain = 0
KLO1 161209Z 01010KT 13/13 A2984 RMK A01 T01280128  RH  100%=      5-min Rain = 0
KLO1 161210Z 01011KT 13/13 A2984 RMK A01 T01270127  RH  100%=      5-min Rain = 0
KLO1 161211Z 01011KT 13/13 A2985 RMK A01 T01270127  RH  100%=      5-min Rain = 0
KLO1 161212Z 00010KT 13/13 A2985 RMK A01 T01270127  RH  100%=      5-min Rain = 0
KLO1 161213Z 00011KT 13/13 A2985 RMK A01 T01270127  RH  100%=      5-min Rain = 0
KLO1 161214Z 00011KT 13/13 A2985 RMK A01 T01270127  RH  100%=      5-min Rain = 0
KLO1 161215Z 01011KT 13/13 A2985 RMK A01 T01260126  RH  100%=      5-min Rain = 0
KLO1 161216Z 01011KT 13/13 A2985 RMK A01 T01260126  RH  100%=      5-min Rain = 0
KLO1 161217Z 00010KT 13/13 A2985 RMK A01 T01260126  RH  100%=      5-min Rain = 0
KLO1 161218Z 00010KT 13/13 A2985 RMK A01 T01260126  RH  100%=      5-min Rain = 0
KLO1 161219Z 00009KT 13/13 A2985 RMK A01 T01260126  RH  100%=      5-min Rain = 0
KLO1 161220Z 00011KT 13/13 A2985 RMK A01 T01260126  RH  100%=      5-min Rain = 0
KLO1 161221Z 00011KT 13/13 A2985 RMK A01 T01260126  RH  100%=      5-min Rain = 0
KLO1 161222Z 00013KT 13/13 A2985 RMK A01 T01260126  RH  100%=      5-min Rain = 0
KLO1 161223Z 01011KT 13/13 A2985 RMK A01 T01260126  RH  100%=      5-min Rain = 0
KLO1 161224Z 00010KT 13/13 A2986 RMK A01 T01260126  RH  100%=      5-min Rain = 0
KLO1 161225Z 00012KT 13/13 A2986 RMK A01 T01250125  RH  100%=      5-min Rain = 0
KLO1 161226Z 00012KT 13/13 A2986 RMK A01 T01250125  RH  100%=      5-min Rain = 0
KLO1 161227Z 01011KT 13/13 A2986 RMK A01 T01250125  RH  100%=      5-min Rain = 0
KLO1 161228Z 01011KT 13/13 A2986 RMK A01 T01250125  RH  100%=      5-min Rain = 0
KLO1 161229Z 01008KT 13/13 A2986 RMK A01 T01250125  RH  100%=      5-min Rain = 0
KLO1 161230Z 01010KT 13/13 A2986 RMK A01 T01250125  RH  100%=      5-min Rain = 0.01
KLO1 161231Z 01010KT 13/13 A2986 RMK A01 T01250125  RH  100%=      5-min Rain = 0
KLO1 161232Z 00011KT 13/13 A2986 RMK A01 T01250125  RH  100%=      5-min Rain = 0
KLO1 161233Z 00012KT 13/13 A2986 RMK A01 T01250125  RH  100%=      5-min Rain = 0
KLO1 161234Z 00013KT 13/13 A2986 RMK A01 T01250125  RH  100%=      5-min Rain = 0
KLO1 161235Z 00011KT 13/13 A2986 RMK A01 T01250125  RH  100%=      5-min Rain = 0
KLO1 161236Z 01012KT 13/13 A2986 RMK A01 T01250125  RH  100%=      5-min Rain = 0
KLO1 161237Z 01011KT 13/13 A2986 RMK A01 T01250125  RH  100%=      5-min Rain = 0
KLO1 161238Z 01010KT 13/13 A2986 RMK A01 T01250125  RH  100%=      5-min Rain = 0
KLO1 161239Z 01012KT 13/13 A2986 RMK A01 T01250125  RH  100%=      5-min Rain = 0
KLO1 161240Z 02013KT 13/13 A2987 RMK A01 T01250125  RH  100%=      5-min Rain = 0
KLO1 161241Z 02016KT 12/12 A2987 RMK A01 T01230123  RH  100%=      5-min Rain = 0
KLO1 161242Z 02015KT 12/12 A2987 RMK A01 T01200120  RH  100%=      5-min Rain = 0
KLO1 161243Z 02014KT 12/12 A2987 RMK A01 T01180118  RH  100%=      5-min Rain = 0
KLO1 161244Z 02015KT 12/12 A2987 RMK A01 T01170118  RH  100%=      5-min Rain = 0
KLO1 161245Z 02013KT 12/12 A2987 RMK A01 T01170117  RH  100%=      5-min Rain = 0
KLO1 161246Z 02015KT 12/12 A2987 RMK A01 T01160116  RH  100%=      5-min Rain = 0
KLO1 161247Z 02013KT 12/12 A2987 RMK A01 T01160116  RH  100%=      5-min Rain = 0
KLO1 161248Z 02013KT 12/12 A2987 RMK A01 T01160116  RH  100%=      5-min Rain = 0
KLO1 161249Z 02010KT 12/12 A2987 RMK A01 T01160116  RH  100%=      5-min Rain = 0
KLO1 161250Z 02011KT 12/12 A2987 RMK A01 T01160116  RH  100%=      5-min Rain = 0
KLO1 161251Z 02012KT 12/12 A2987 RMK A01 T01160116  RH  100%=      5-min Rain = 0
KLO1 161252Z 02012KT 12/12 A2987 RMK A01 T01160116  RH  100%=      5-min Rain = 0
KLO1 161253Z 02013KT 12/12 A2987 RMK A01 T01160116  RH  100%=      5-min Rain = 0
KLO1 161254Z 02014KT 12/12 A2987 RMK A01 T01160116  RH  100%=      5-min Rain = 0
KLO1 161255Z 02011KT 12/12 A2987 RMK A01 T01160116  RH  100%=      5-min Rain = 0
KLO1 161256Z 02011KT 12/12 A2987 RMK A01 T01160116  RH  100%=      5-min Rain = 0
KLO1 161257Z 02009KT 12/12 A2987 RMK A01 T01160116  RH  100%=      5-min Rain = 0
KLO1 161258Z 02012KT 12/12 A2987 RMK A01 T01160116  RH  100%=      5-min Rain = 0
KLO1 161259Z 02011KT 12/12 A2987 RMK A01 T01160116  RH  100%=      5-min Rain = 0
KLO1 161300Z 02010KT 12/12 A2987 RMK A01 T01160116  RH  100%=      5-min Rain = 0
KLO1 161301Z 02009KT 12/12 A2988 RMK A01 T01160116  RH  100%=      5-min Rain = 0
KLO1 161302Z 02009KT 12/12 A2988 RMK A01 T01160116  RH  100%=      5-min Rain = 0
KLO1 161303Z 02011KT 12/12 A2987 RMK A01 T01160116  RH  100%=      5-min Rain = 0
KLO1 161304Z 02009KT 12/12 A2987 RMK A01 T01150116  RH  100%=      5-min Rain = 0
KLO1 161305Z 02011KT 12/12 A2988 RMK A01 T01160116  RH  100%=      5-min Rain = 0
KLO1 161306Z 02011KT 12/12 A2988 RMK A01 T01160116  RH  100%=      5-min Rain = 0
KLO1 161307Z 01009KT 12/12 A2988 RMK A01 T01160116  RH  100%=      5-min Rain = 0
KLO1 161308Z 02010KT 12/12 A2988 RMK A01 T01160116  RH  100%=      5-min Rain = 0
KLO1 161309Z 02009KT 12/12 A2988 RMK A01 T01160116  RH  100%=      5-min Rain = 0
KLO1 161310Z 02009KT 12/12 A2988 RMK A01 T01160116  RH  100%=      5-min Rain = 0
KLO1 161311Z 02009KT 12/12 A2988 RMK A01 T01160116  RH  100%=      5-min Rain = 0
KLO1 161312Z 02010KT 12/12 A2988 RMK A01 T01160116  RH  100%=      5-min Rain = 0
KLO1 161313Z 02009KT 12/12 A2988 RMK A01 T01160116  RH  100%=      5-min Rain = 0
KLO1 161314Z 02008KT 12/12 A2988 RMK A01 T01160116  RH  100%=      5-min Rain = 0
KLO1 161315Z 01006KT 12/12 A2988 RMK A01 T01170117  RH  100%=      5-min Rain = 0
KLO1 161316Z 01007KT 12/12 A2988 RMK A01 T01160117  RH  100%=      5-min Rain = 0
KLO1 161317Z 02007KT 12/12 A2988 RMK A01 T01160117  RH  100%=      5-min Rain = 0
KLO1 161318Z 02008KT 12/12 A2988 RMK A01 T01170117  RH  100%=      5-min Rain = 0
KLO1 161319Z 01008KT 12/12 A2988 RMK A01 T01170117  RH  100%=      5-min Rain = 0
KLO1 161320Z 02009KT 12/12 A2988 RMK A01 T01170117  RH  100%=      5-min Rain = 0
KLO1 161321Z 02009KT 12/12 A2988 RMK A01 T01160116  RH  100%=      5-min Rain = 0
KLO1 161322Z 02009KT 12/12 A2988 RMK A01 T01170116  RH  100%=      5-min Rain = 0
KLO1 161323Z 01009KT 12/12 A2988 RMK A01 T01170116  RH  100%=      5-min Rain = 0
KLO1 161324Z 01008KT 12/12 A2989 RMK A01 T01170116  RH  100%=      5-min Rain = 0
KLO1 161325Z 02007KT 12/12 A2989 RMK A01 T01170116  RH  100%=      5-min Rain = 0
KLO1 161326Z 02007KT 12/12 A2989 RMK A01 T01170116  RH  100%=      5-min Rain = 0
KLO1 161327Z 02007KT 12/12 A2989 RMK A01 T01170116  RH  100%=      5-min Rain = 0
KLO1 161328Z 01008KT 12/12 A2989 RMK A01 T01170117  RH  100%=      5-min Rain = 0
KLO1 161329Z 01008KT 12/12 A2989 RMK A01 T01170116  RH  100%=      5-min Rain = 0
KLO1 161330Z 01008KT 12/12 A2989 RMK A01 T01170116  RH  100%=      5-min Rain = 0
KLO1 161331Z 01007KT 12/12 A2989 RMK A01 T01170117  RH  100%=      5-min Rain = 0
KLO1 161332Z 01007KT 12/12 A2989 RMK A01 T01170116  RH  100%=      5-min Rain = 0
KLO1 161333Z 02007KT 12/12 A2989 RMK A01 T01170116  RH  100%=      5-min Rain = 0
KLO1 161334Z 01006KT 12/12 A2989 RMK A01 T01170117  RH  100%=      5-min Rain = 0
KLO1 161335Z 01007KT 12/12 A2989 RMK A01 T01180118  RH  100%=      5-min Rain = 0
KLO1 161336Z 01007KT 12/12 A2989 RMK A01 T01180117  RH  100%=      5-min Rain = 0
KLO1 161337Z 01007KT 12/12 A2989 RMK A01 T01180118  RH  100%=      5-min Rain = 0
KLO1 161338Z 01007KT 12/12 A2989 RMK A01 T01180117  RH  100%=      5-min Rain = 0
KLO1 161339Z 02008KT 12/12 A2989 RMK A01 T01180117  RH  100%=      5-min Rain = 0
KLO1 161340Z 02006KT 12/12 A2989 RMK A01 T01180118  RH  100%=      5-min Rain = 0
KLO1 161341Z 01007KT 12/12 A2989 RMK A01 T01180118  RH  100%=      5-min Rain = 0
KLO1 161342Z 01008KT 12/12 A2989 RMK A01 T01180118  RH  100%=      5-min Rain = 0
KLO1 161343Z 02009KT 12/12 A2989 RMK A01 T01180117  RH  099%=      5-min Rain = 0
KLO1 161344Z 02010KT 12/12 A2989 RMK A01 T01180117  RH  099%=      5-min Rain = 0
KLO1 161345Z 01009KT 12/12 A2989 RMK A01 T01170116  RH  099%=      5-min Rain = 0
KLO1 161346Z 02008KT 12/12 A2989 RMK A01 T01170116  RH  099%=      5-min Rain = 0
KLO1 161347Z 02009KT 12/12 A2989 RMK A01 T01180116  RH  099%=      5-min Rain = 0
KLO1 161348Z 02008KT 12/12 A2989 RMK A01 T01180116  RH  099%=      5-min Rain = 0
KLO1 161349Z 02009KT 12/12 A2989 RMK A01 T01180116  RH  099%=      5-min Rain = 0
KLO1 161350Z 01009KT 12/12 A2989 RMK A01 T01170116  RH  099%=      5-min Rain = 0
KLO1 161351Z 01009KT 12/12 A299 RMK A01 T01170116  RH  099%=      5-min Rain = 0
KLO1 161352Z 01009KT 12/12 A299 RMK A01 T01170115  RH  099%=      5-min Rain = 0
KLO1 161353Z 02007KT 12/12 A299 RMK A01 T01170115  RH  099%=      5-min Rain = 0
KLO1 161354Z 01007KT 12/12 A299 RMK A01 T01170115  RH  099%=      5-min Rain = 0
KLO1 161355Z 00008KT 12/12 A299 RMK A01 T01170116  RH  099%=      5-min Rain = 0
KLO1 161356Z 01008KT 12/12 A299 RMK A01 T01160115  RH  099%=      5-min Rain = 0
KLO1 161357Z 01009KT 12/11 A299 RMK A01 T01160114  RH  099%=      5-min Rain = 0
KLO1 161358Z 02010KT 12/12 A299 RMK A01 T01160115  RH  099%=      5-min Rain = 0
KLO1 161359Z 02008KT 12/11 A299 RMK A01 T01150114  RH  099%=      5-min Rain = 0
KLO1 161400Z 00008KT 12/11 A299 RMK A01 T01150114  RH  099%=      5-min Rain = 0
KLO1 161401Z 01009KT 12/11 A299 RMK A01 T01150113  RH  099%=      5-min Rain = 0
KLO1 161402Z 01009KT 12/11 A299 RMK A01 T01150113  RH  099%=      5-min Rain = 0
KLO1 161403Z 01010KT 12/11 A299 RMK A01 T01150113  RH  099%=      5-min Rain = 0
KLO1 161404Z 01009KT 12/11 A299 RMK A01 T01150113  RH  098%=      5-min Rain = 0
KLO1 161405Z 01010KT 12/11 A299 RMK A01 T01150112  RH  098%=      5-min Rain = 0
KLO1 161406Z 00010KT 12/11 A299 RMK A01 T01150112  RH  098%=      5-min Rain = 0
KLO1 161407Z 01010KT 11/11 A299 RMK A01 T01140112  RH  098%=      5-min Rain = 0
KLO1 161408Z 01009KT 11/11 A299 RMK A01 T01140112  RH  098%=      5-min Rain = 0
KLO1 161409Z 01010KT 11/11 A299 RMK A01 T01140112  RH  099%=      5-min Rain = 0
KLO1 161410Z 01009KT 11/11 A299 RMK A01 T01140112  RH  099%=      5-min Rain = 0
KLO1 161411Z 01009KT 11/11 A299 RMK A01 T01140112  RH  099%=      5-min Rain = 0
KLO1 161412Z 01009KT 11/11 A299 RMK A01 T01140113  RH  099%=      5-min Rain = 0
KLO1 161413Z 01008KT 11/11 A299 RMK A01 T01130112  RH  099%=      5-min Rain = 0
KLO1 161414Z 01009KT 11/11 A299 RMK A01 T01130112  RH  099%=      5-min Rain = 0
KLO1 161415Z 01008KT 11/11 A299 RMK A01 T01130113  RH  099%=      5-min Rain = 0
KLO1 161416Z 02008KT 11/11 A299 RMK A01 T01140113  RH  100%=      5-min Rain = 0
KLO1 161417Z 01008KT 11/11 A299 RMK A01 T01140113  RH  100%=      5-min Rain = 0
KLO1 161418Z 02007KT 11/11 A299 RMK A01 T01140113  RH  100%=      5-min Rain = 0
KLO1 161419Z 02007KT 11/11 A299 RMK A01 T01140114  RH  100%=      5-min Rain = 0
KLO1 161420Z 02008KT 11/11 A299 RMK A01 T01140114  RH  100%=      5-min Rain = 0
KLO1 161421Z 01009KT 11/11 A299 RMK A01 T01140114  RH  100%=      5-min Rain = 0
KLO1 161422Z 01008KT 11/11 A299 RMK A01 T01140114  RH  100%=      5-min Rain = 0
KLO1 161423Z 01007KT 11/11 A299 RMK A01 T01140114  RH  099%=      5-min Rain = 0
KLO1 161424Z 01007KT 12/11 A299 RMK A01 T01150114  RH  099%=      5-min Rain = 0
KLO1 161425Z 02007KT 12/11 A299 RMK A01 T01150114  RH  099%=      5-min Rain = 0
KLO1 161426Z 01008KT 12/11 A299 RMK A01 T01150114  RH  099%=      5-min Rain = 0
KLO1 161427Z 01009KT 12/11 A299 RMK A01 T01150113  RH  099%=      5-min Rain = 0
KLO1 161428Z 01008KT 12/11 A299 RMK A01 T01150112  RH  098%=      5-min Rain = 0
KLO1 161429Z 02009KT 12/11 A299 RMK A01 T01150112  RH  098%=      5-min Rain = 0
KLO1 161430Z 01008KT 11/11 A299 RMK A01 T01140111  RH  098%=      5-min Rain = 0
KLO1 161431Z 02009KT 12/11 A299 RMK A01 T01150112  RH  098%=      5-min Rain = 0
KLO1 161432Z 01008KT 12/11 A299 RMK A01 T01150111  RH  098%=      5-min Rain = 0
KLO1 161433Z 02007KT 12/11 A299 RMK A01 T01150111  RH  098%=      5-min Rain = 0
KLO1 161434Z 02009KT 12/11 A299 RMK A01 T01150112  RH  098%=      5-min Rain = 0
KLO1 161435Z 02007KT 12/11 A299 RMK A01 T01150111  RH  098%=      5-min Rain = 0
KLO1 161436Z 02006KT 12/11 A299 RMK A01 T01150112  RH  098%=      5-min Rain = 0
KLO1 161437Z 02009KT 12/11 A299 RMK A01 T01160113  RH  098%=      5-min Rain = 0
KLO1 161438Z 03009KT 12/11 A299 RMK A01 T01160112  RH  097%=      5-min Rain = 0
KLO1 161439Z 02010KT 12/11 A299 RMK A01 T01160111  RH  097%=      5-min Rain = 0
KLO1 161440Z 02011KT 12/11 A299 RMK A01 T01160111  RH  097%=      5-min Rain = 0
KLO1 161441Z 02011KT 12/11 A299 RMK A01 T01160110  RH  096%=      5-min Rain = 0
KLO1 161442Z 02011KT 12/11 A299 RMK A01 T01160110  RH  096%=      5-min Rain = 0
KLO1 161443Z 03011KT 12/11 A299 RMK A01 T01160110  RH  096%=      5-min Rain = 0
KLO1 161444Z 03010KT 12/11 A299 RMK A01 T01160109  RH  096%=      5-min Rain = 0
KLO1 161445Z 02009KT 12/11 A299 RMK A01 T01160110  RH  096%=      5-min Rain = 0
KLO1 161446Z 02011KT 12/11 A299 RMK A01 T01160111  RH  096%=      5-min Rain = 0
KLO1 161447Z 03011KT 12/11 A299 RMK A01 T01160109  RH  096%=      5-min Rain = 0
KLO1 161448Z 03009KT 12/11 A299 RMK A01 T01160110  RH  096%=      5-min Rain = 0
KLO1 161449Z 03009KT 12/11 A299 RMK A01 T01160111  RH  096%=      5-min Rain = 0
KLO1 161450Z 03009KT 12/11 A299 RMK A01 T01170111  RH  096%=      5-min Rain = 0
KLO1 161451Z 03009KT 12/11 A299 RMK A01 T01170112  RH  097%=      5-min Rain = 0
KLO1 161452Z 02010KT 12/11 A299 RMK A01 T01180113  RH  097%=      5-min Rain = 0
KLO1 161453Z 03010KT 12/11 A299 RMK A01 T01170111  RH  096%=      5-min Rain = 0
KLO1 161454Z 03010KT 12/11 A299 RMK A01 T01170110  RH  096%=      5-min Rain = 0
KLO1 161455Z 03011KT 12/11 A299 RMK A01 T01170110  RH  095%=      5-min Rain = 0
KLO1 161456Z 02011KT 12/11 A299 RMK A01 T01170109  RH  095%=      5-min Rain = 0
KLO1 161457Z 02011KT 12/11 A299 RMK A01 T01170109  RH  095%=      5-min Rain = 0
KLO1 161458Z 02009KT 12/11 A299 RMK A01 T01170110  RH  096%=      5-min Rain = 0
KLO1 161459Z 02008KT 12/11 A299 RMK A01 T01170112  RH  097%=      5-min Rain = 0
KLO1 161500Z 02009KT 12/11 A299 RMK A01 T01180112  RH  096%=      5-min Rain = 0
KLO1 161501Z 02009KT 12/11 A299 RMK A01 T01180111  RH  096%=      5-min Rain = 0
KLO1 161502Z 03009KT 12/11 A299 RMK A01 T01180112  RH  096%=      5-min Rain = 0
KLO1 161503Z 02009KT 12/11 A299 RMK A01 T01180111  RH  096%=      5-min Rain = 0
KLO1 161504Z 02009KT 12/11 A299 RMK A01 T01180111  RH  095%=      5-min Rain = 0
KLO1 161505Z 01010KT 12/11 A299 RMK A01 T01180111  RH  095%=      5-min Rain = 0
KLO1 161506Z 01010KT 12/11 A299 RMK A01 T01180111  RH  096%=      5-min Rain = 0
KLO1 161507Z 01009KT 12/11 A299 RMK A01 T01180110  RH  095%=      5-min Rain = 0
KLO1 161508Z 01010KT 12/11 A299 RMK A01 T01180111  RH  096%=      5-min Rain = 0
KLO1 161509Z 01009KT 12/11 A299 RMK A01 T01180111  RH  095%=      5-min Rain = 0
KLO1 161510Z 01008KT 12/11 A299 RMK A01 T01180110  RH  095%=      5-min Rain = 0
KLO1 161511Z 01007KT 12/11 A299 RMK A01 T01170110  RH  095%=      5-min Rain = 0
KLO1 161512Z 02007KT 12/11 A299 RMK A01 T01180112  RH  096%=      5-min Rain = 0
KLO1 161513Z 02008KT 12/11 A299 RMK A01 T01180111  RH  096%=      5-min Rain = 0
KLO1 161514Z 04007KT 12/11 A299 RMK A01 T01180112  RH  096%=      5-min Rain = 0
KLO1 161515Z 03007KT 12/11 A299 RMK A01 T01190113  RH  096%=      5-min Rain = 0
KLO1 161516Z 02007KT 12/11 A299 RMK A01 T01180112  RH  096%=      5-min Rain = 0
KLO1 161517Z 02008KT 12/11 A2991 RMK A01 T01190113  RH  096%=      5-min Rain = 0
KLO1 161518Z 01008KT 12/11 A2991 RMK A01 T01190112  RH  096%=      5-min Rain = 0
KLO1 161519Z 01008KT 12/11 A2991 RMK A01 T01190112  RH  095%=      5-min Rain = 0
KLO1 161520Z 02008KT 12/11 A2991 RMK A01 T01190111  RH  095%=      5-min Rain = 0
KLO1 161521Z 02007KT 12/11 A2991 RMK A01 T01180111  RH  095%=      5-min Rain = 0
KLO1 161522Z 02006KT 12/11 A2991 RMK A01 T01190113  RH  096%=      5-min Rain = 0
KLO1 161523Z 02007KT 12/12 A2991 RMK A01 T01210116  RH  097%=      5-min Rain = 0
KLO1 161524Z 01007KT 12/12 A2991 RMK A01 T01210115  RH  096%=      5-min Rain = 0
KLO1 161525Z 01007KT 12/11 A2991 RMK A01 T01210114  RH  095%=      5-min Rain = 0
KLO1 161526Z 02008KT 12/11 A2991 RMK A01 T01210114  RH  096%=      5-min Rain = 0
KLO1 161527Z 02007KT 12/11 A2991 RMK A01 T01200112  RH  095%=      5-min Rain = 0
KLO1 161528Z 03008KT 12/11 A2991 RMK A01 T01200112  RH  095%=      5-min Rain = 0
KLO1 161529Z 04009KT 12/11 A2991 RMK A01 T01190112  RH  095%=      5-min Rain = 0
KLO1 161530Z 03009KT 12/11 A2991 RMK A01 T01190112  RH  095%=      5-min Rain = 0
KLO1 161531Z 03009KT 12/11 A2991 RMK A01 T01190111  RH  095%=      5-min Rain = 0
KLO1 161532Z 04008KT 12/11 A2991 RMK A01 T01190111  RH  095%=      5-min Rain = 0
KLO1 161533Z 03009KT 12/11 A2991 RMK A01 T01190112  RH  095%=      5-min Rain = 0
KLO1 161534Z 03010KT 12/11 A2991 RMK A01 T01200113  RH  096%=      5-min Rain = 0
KLO1 161535Z 03010KT 12/11 A2991 RMK A01 T01200113  RH  095%=      5-min Rain = 0
KLO1 161536Z 03009KT 12/11 A2991 RMK A01 T01200112  RH  095%=      5-min Rain = 0
KLO1 161537Z 02009KT 12/11 A2991 RMK A01 T01190111  RH  095%=      5-min Rain = 0
KLO1 161538Z 03009KT 12/11 A2991 RMK A01 T01190111  RH  095%=      5-min Rain = 0
KLO1 161539Z 03010KT 12/11 A2991 RMK A01 T01190111  RH  095%=      5-min Rain = 0
KLO1 161540Z 03010KT 12/11 A2991 RMK A01 T01200111  RH  095%=      5-min Rain = 0
KLO1 161541Z 02008KT 12/11 A2991 RMK A01 T01200110  RH  094%=      5-min Rain = 0
KLO1 161542Z 01008KT 12/11 A2991 RMK A01 T01200112  RH  095%=      5-min Rain = 0
KLO1 161543Z 02009KT 12/11 A299 RMK A01 T01200112  RH  095%=      5-min Rain = 0
KLO1 161544Z 03009KT 12/11 A299 RMK A01 T01200112  RH  095%=      5-min Rain = 0
KLO1 161545Z 02009KT 12/11 A2991 RMK A01 T01200112  RH  095%=      5-min Rain = 0
KLO1 161546Z 02009KT 12/11 A2991 RMK A01 T01200112  RH  095%=      5-min Rain = 0
KLO1 161547Z 02010KT 12/11 A2991 RMK A01 T01210112  RH  095%=      5-min Rain = 0
KLO1 161548Z 02009KT 12/11 A2991 RMK A01 T01210111  RH  094%=      5-min Rain = 0
KLO1 161549Z 02010KT 12/11 A2991 RMK A01 T01210112  RH  094%=      5-min Rain = 0
KLO1 161550Z 03009KT 12/11 A2991 RMK A01 T01210111  RH  094%=      5-min Rain = 0
KLO1 161551Z 03010KT 12/11 A2991 RMK A01 T01210112  RH  094%=      5-min Rain = 0
KLO1 161552Z 03008KT 12/11 A2991 RMK A01 T01210111  RH  094%=      5-min Rain = 0
KLO1 161553Z 03008KT 12/11 A2991 RMK A01 T01210113  RH  095%=      5-min Rain = 0
KLO1 161554Z 02009KT 12/11 A2991 RMK A01 T01210113  RH  095%=      5-min Rain = 0
KLO1 161555Z 02009KT 12/11 A2991 RMK A01 T01220112  RH  094%=      5-min Rain = 0
KLO1 161556Z 02008KT 12/11 A2991 RMK A01 T01220113  RH  095%=      5-min Rain = 0
KLO1 161557Z 01008KT 12/12 A2991 RMK A01 T01220115  RH  095%=      5-min Rain = 0
KLO1 161558Z 02009KT 12/12 A2991 RMK A01 T01230115  RH  095%=      5-min Rain = 0
KLO1 161559Z 02008KT 12/11 A2991 RMK A01 T01230113  RH  094%=      5-min Rain = 0
KLO1 161600Z 02008KT 12/11 A2991 RMK A01 T01230113  RH  094%=      5-min Rain = 0
KLO1 161601Z 03008KT 12/11 A2991 RMK A01 T01230113  RH  094%=      5-min Rain = 0
KLO1 161602Z 03009KT 12/11 A2991 RMK A01 T01220113  RH  094%=      5-min Rain = 0
KLO1 161603Z 02009KT 12/11 A2991 RMK A01 T01220113  RH  094%=      5-min Rain = 0
KLO1 161604Z 03008KT 12/11 A2991 RMK A01 T01220114  RH  095%=      5-min Rain = 0
KLO1 161605Z 02008KT 12/12 A2991 RMK A01 T01230116  RH  096%=      5-min Rain = 0
KLO1 161606Z 02009KT 12/12 A2991 RMK A01 T01230116  RH  095%=      5-min Rain = 0
KLO1 161607Z 03011KT 12/11 A2991 RMK A01 T01230114  RH  094%=      5-min Rain = 0
KLO1 161608Z 03010KT 12/11 A2991 RMK A01 T01220112  RH  094%=      5-min Rain = 0
KLO1 161609Z 02008KT 12/11 A2991 RMK A01 T01210112  RH  094%=      5-min Rain = 0
KLO1 161610Z 02010KT 12/11 A2991 RMK A01 T01210114  RH  095%=      5-min Rain = 0
KLO1 161611Z 02010KT 12/11 A2991 RMK A01 T01210112  RH  094%=      5-min Rain = 0
KLO1 161612Z 03010KT 12/11 A2991 RMK A01 T01210113  RH  094%=      5-min Rain = 0
KLO1 161613Z 02010KT 12/11 A2991 RMK A01 T01210112  RH  094%=      5-min Rain = 0
KLO1 161614Z 01009KT 12/11 A2991 RMK A01 T01210113  RH  094%=      5-min Rain = 0
KLO1 161615Z 01008KT 12/11 A2991 RMK A01 T01210112  RH  094%=      5-min Rain = 0
KLO1 161616Z 01009KT 12/11 A2992 RMK A01 T01210113  RH  095%=      5-min Rain = 0
KLO1 161617Z 02009KT 12/11 A2992 RMK A01 T01210112  RH  094%=      5-min Rain = 0
KLO1 161618Z 01009KT 12/11 A2992 RMK A01 T01210111  RH  094%=      5-min Rain = 0
KLO1 161619Z 02010KT 12/11 A2992 RMK A01 T01210112  RH  094%=      5-min Rain = 0
KLO1 161620Z 03009KT 12/11 A2992 RMK A01 T01210112  RH  094%=      5-min Rain = 0
KLO1 161621Z 04010KT 12/11 A2992 RMK A01 T01210111  RH  094%=      5-min Rain = 0
KLO1 161622Z 03009KT 12/11 A2992 RMK A01 T01210112  RH  094%=      5-min Rain = 0
KLO1 161623Z 03010KT 12/11 A2992 RMK A01 T01210112  RH  094%=      5-min Rain = 0
KLO1 161624Z 03009KT 12/11 A2992 RMK A01 T01200111  RH  094%=      5-min Rain = 0
KLO1 161625Z 02006KT 12/11 A2992 RMK A01 T01200112  RH  095%=      5-min Rain = 0
KLO1 161626Z 02007KT 12/11 A2992 RMK A01 T01210114  RH  096%=      5-min Rain = 0
KLO1 161627Z 02006KT 12/12 A2992 RMK A01 T01220115  RH  095%=      5-min Rain = 0
KLO1 161628Z 03009KT 12/12 A2992 RMK A01 T01220116  RH  096%=      5-min Rain = 0
KLO1 161629Z 02008KT 12/11 A2992 RMK A01 T01220113  RH  094%=      5-min Rain = 0
KLO1 161630Z 02008KT 12/11 A2992 RMK A01 T01220114  RH  095%=      5-min Rain = 0
KLO1 161631Z 03009KT 12/11 A2992 RMK A01 T01220114  RH  095%=      5-min Rain = 0
KLO1 161632Z 03008KT 12/11 A2992 RMK A01 T01210112  RH  094%=      5-min Rain = 0
KLO1 161633Z 03007KT 12/11 A2992 RMK A01 T01210112  RH  095%=      5-min Rain = 0
KLO1 161634Z 02007KT 12/11 A2992 RMK A01 T01210114  RH  096%=      5-min Rain = 0
KLO1 161635Z 02007KT 12/12 A2992 RMK A01 T01220115  RH  096%=      5-min Rain = 0
KLO1 161636Z 02007KT 12/12 A2992 RMK A01 T01220116  RH  096%=      5-min Rain = 0
KLO1 161637Z 02007KT 12/12 A2992 RMK A01 T01220115  RH  095%=      5-min Rain = 0
KLO1 161638Z 01008KT 12/12 A2992 RMK A01 T01220115  RH  095%=      5-min Rain = 0
KLO1 161639Z 01009KT 12/12 A2992 RMK A01 T01230115  RH  095%=      5-min Rain = 0
KLO1 161640Z 01010KT 12/11 A2993 RMK A01 T01220113  RH  094%=      5-min Rain = 0
KLO1 161641Z 02010KT 12/11 A2993 RMK A01 T01220114  RH  095%=      5-min Rain = 0
KLO1 161642Z 01009KT 12/11 A2993 RMK A01 T01220114  RH  095%=      5-min Rain = 0
KLO1 161643Z 01009KT 12/11 A2993 RMK A01 T01210114  RH  095%=      5-min Rain = 0
KLO1 161644Z 02009KT 12/11 A2993 RMK A01 T01210112  RH  094%=      5-min Rain = 0
KLO1 161645Z 02009KT 12/11 A2993 RMK A01 T01210111  RH  094%=      5-min Rain = 0
KLO1 161646Z 02010KT 12/11 A2993 RMK A01 T01210112  RH  094%=      5-min Rain = 0
KLO1 161647Z 01008KT 12/11 A2993 RMK A01 T01200112  RH  094%=      5-min Rain = 0
KLO1 161648Z 02010KT 12/11 A2993 RMK A01 T01200112  RH  095%=      5-min Rain = 0
KLO1 161649Z 03009KT 12/11 A2993 RMK A01 T01200112  RH  095%=      5-min Rain = 0
KLO1 161650Z 02010KT 12/11 A2993 RMK A01 T01200113  RH  095%=      5-min Rain = 0
KLO1 161651Z 03010KT 12/11 A2993 RMK A01 T01200113  RH  095%=      5-min Rain = 0
KLO1 161652Z 02010KT 12/11 A2993 RMK A01 T01200113  RH  095%=      5-min Rain = 0
KLO1 161653Z 02009KT 12/11 A2993 RMK A01 T01200113  RH  096%=      5-min Rain = 0
KLO1 161654Z 02008KT 12/11 A2993 RMK A01 T01200114  RH  096%=      5-min Rain = 0
KLO1 161655Z 02009KT 12/11 A2993 RMK A01 T01200114  RH  096%=      5-min Rain = 0
KLO1 161656Z 03010KT 12/11 A2993 RMK A01 T01200113  RH  095%=      5-min Rain = 0
KLO1 161657Z 02010KT 12/11 A2993 RMK A01 T01200113  RH  096%=      5-min Rain = 0
KLO1 161658Z 03009KT 12/11 A2993 RMK A01 T01200113  RH  095%=      5-min Rain = 0
KLO1 161659Z 03009KT 12/11 A2993 RMK A01 T01200113  RH  095%=      5-min Rain = 0
KLO1 161700Z 02010KT 12/11 A2993 RMK A01 T01200113  RH  096%=      5-min Rain = 0
KLO1 161701Z 01009KT 12/11 A2993 RMK A01 T01200113  RH  096%=      5-min Rain = 0
KLO1 161702Z 01010KT 12/11 A2993 RMK A01 T01200113  RH  096%=      5-min Rain = 0
KLO1 161703Z 01009KT 12/11 A2993 RMK A01 T01200113  RH  095%=      5-min Rain = 0
KLO1 161704Z 01008KT 12/11 A2993 RMK A01 T01200112  RH  095%=      5-min Rain = 0
KLO1 161705Z 02008KT 12/11 A2993 RMK A01 T01200113  RH  095%=      5-min Rain = 0
KLO1 161706Z 03008KT 12/11 A2993 RMK A01 T01200113  RH  095%=      5-min Rain = 0
KLO1 161707Z 02010KT 12/11 A2993 RMK A01 T01210114  RH  096%=      5-min Rain = 0
KLO1 161708Z 02008KT 12/11 A2993 RMK A01 T01210113  RH  095%=      5-min Rain = 0
KLO1 161709Z 02008KT 12/11 A2993 RMK A01 T01210114  RH  095%=      5-min Rain = 0
KLO1 161710Z 02007KT 12/11 A2993 RMK A01 T01220114  RH  095%=      5-min Rain = 0
KLO1 161711Z 01007KT 12/12 A2993 RMK A01 T01230116  RH  096%=      5-min Rain = 0
KLO1 161712Z 01007KT 12/12 A2993 RMK A01 T01230117  RH  096%=      5-min Rain = 0
KLO1 161713Z 02008KT 12/12 A2993 RMK A01 T01230116  RH  095%=      5-min Rain = 0
KLO1 161714Z 01009KT 12/11 A2993 RMK A01 T01230114  RH  094%=      5-min Rain = 0
KLO1 161715Z 00010KT 12/11 A2993 RMK A01 T01230113  RH  094%=      5-min Rain = 0
KLO1 161716Z 01010KT 12/11 A2993 RMK A01 T01220112  RH  093%=      5-min Rain = 0
KLO1 161717Z 01011KT 12/11 A2993 RMK A01 T01210112  RH  094%=      5-min Rain = 0
KLO1 161718Z 00010KT 12/11 A2993 RMK A01 T01210113  RH  095%=      5-min Rain = 0
KLO1 161719Z 00009KT 12/11 A2993 RMK A01 T01220113  RH  094%=      5-min Rain = 0
KLO1 161720Z 00008KT 12/11 A2993 RMK A01 T01210112  RH  094%=      5-min Rain = 0
KLO1 161721Z 00009KT 12/11 A2993 RMK A01 T01210111  RH  094%=      5-min Rain = 0
KLO1 161722Z 01008KT 12/11 A2993 RMK A01 T01220113  RH  094%=      5-min Rain = 0
KLO1 161723Z 00008KT 12/11 A2993 RMK A01 T01220112  RH  094%=      5-min Rain = 0
KLO1 161724Z 01008KT 12/11 A2993 RMK A01 T01210112  RH  094%=      5-min Rain = 0
KLO1 161725Z 01009KT 12/11 A2994 RMK A01 T01220113  RH  095%=      5-min Rain = 0
KLO1 161726Z 00008KT 12/12 A2994 RMK A01 T01230115  RH  095%=      5-min Rain = 0
KLO1 161727Z 01007KT 12/11 A2994 RMK A01 T01230114  RH  094%=      5-min Rain = 0
KLO1 161728Z 02008KT 12/11 A2994 RMK A01 T01230114  RH  094%=      5-min Rain = 0
KLO1 161729Z 01008KT 12/12 A2994 RMK A01 T01240117  RH  096%=      5-min Rain = 0
KLO1 161730Z 01008KT 13/12 A2994 RMK A01 T01250117  RH  095%=      5-min Rain = 0
KLO1 161731Z 00008KT 12/12 A2994 RMK A01 T01240116  RH  094%=      5-min Rain = 0
KLO1 161732Z 00009KT 12/12 A2994 RMK A01 T01240115  RH  094%=      5-min Rain = 0
KLO1 161733Z 00010KT 12/11 A2993 RMK A01 T01230113  RH  093%=      5-min Rain = 0
KLO1 161734Z 00009KT 12/11 A2993 RMK A01 T01220111  RH  092%=      5-min Rain = 0
KLO1 161735Z 01008KT 12/11 A2993 RMK A01 T01220111  RH  093%=      5-min Rain = 0
KLO1 161736Z 36009KT 12/11 A2994 RMK A01 T01220111  RH  093%=      5-min Rain = 0
KLO1 161737Z 01007KT 12/11 A2994 RMK A01 T01220111  RH  093%=      5-min Rain = 0
KLO1 161738Z 01009KT 12/11 A2994 RMK A01 T01220113  RH  094%=      5-min Rain = 0
KLO1 161739Z 01010KT 12/11 A2994 RMK A01 T01230113  RH  094%=      5-min Rain = 0
KLO1 161740Z 00008KT 12/11 A2994 RMK A01 T01230113  RH  094%=      5-min Rain = 0
KLO1 161741Z 01007KT 12/11 A2994 RMK A01 T01230112  RH  093%=      5-min Rain = 0
KLO1 161742Z 00007KT 12/11 A2994 RMK A01 T01230113  RH  093%=      5-min Rain = 0
KLO1 161743Z 01007KT 12/11 A2994 RMK A01 T01240113  RH  093%=      5-min Rain = 0
KLO1 161744Z 00007KT 12/11 A2994 RMK A01 T01240113  RH  092%=      5-min Rain = 0
KLO1 161745Z 35006KT 13/11 A2994 RMK A01 T01250114  RH  093%=      5-min Rain = 0
KLO1 161746Z 34009KT 13/12 A2994 RMK A01 T01270115  RH  093%=      5-min Rain = 0
KLO1 161747Z 35008KT 13/11 A2994 RMK A01 T01270114  RH  092%=      5-min Rain = 0
KLO1 161748Z 35008KT 13/11 A2994 RMK A01 T01270113  RH  091%=      5-min Rain = 0
KLO1 161749Z 36008KT 13/11 A2994 RMK A01 T01270113  RH  091%=      5-min Rain = 0
KLO1 161750Z 35007KT 13/11 A2993 RMK A01 T01270111  RH  090%=      5-min Rain = 0
KLO1 161751Z 35007KT 13/11 A2993 RMK A01 T01280113  RH  091%=      5-min Rain = 0
KLO1 161752Z 35007KT 13/12 A2993 RMK A01 T01290115  RH  091%=      5-min Rain = 0
KLO1 161753Z 34007KT 13/12 A2993 RMK A01 T01300115  RH  091%=      5-min Rain = 0
KLO1 161754Z 33007KT 13/12 A2993 RMK A01 T01300115  RH  090%=      5-min Rain = 0
KLO1 161755Z 34007KT 13/11 A2993 RMK A01 T01300114  RH  090%=      5-min Rain = 0
KLO1 161756Z 35008KT 13/12 A2994 RMK A01 T01300115  RH  090%=      5-min Rain = 0
KLO1 161757Z 35007KT 13/11 A2994 RMK A01 T01300113  RH  089%=      5-min Rain = 0
KLO1 161758Z 35006KT 13/11 A2993 RMK A01 T01300113  RH  089%=      5-min Rain = 0
KLO1 161759Z 34006KT 13/11 A2993 RMK A01 T01310114  RH  090%=      5-min Rain = 0
KLO1 161800Z 34006KT 13/11 A2993 RMK A01 T01320114  RH  089%=      5-min Rain = 0
KLO1 161801Z 35007KT 13/12 A2993 RMK A01 T01320115  RH  089%=      5-min Rain = 0
KLO1 161802Z 34008KT 13/11 A2993 RMK A01 T01330114  RH  088%=      5-min Rain = 0
KLO1 161803Z 35007KT 13/11 A2993 RMK A01 T01330114  RH  088%=      5-min Rain = 0
KLO1 161804Z 34010KT 13/11 A2993 RMK A01 T01330113  RH  088%=      5-min Rain = 0
KLO1 161805Z 34010KT 13/11 A2993 RMK A01 T01340114  RH  088%=      5-min Rain = 0
KLO1 161806Z 34010KT 14/12 A2993 RMK A01 T01350115  RH  087%=      5-min Rain = 0
KLO1 161807Z 34011KT 14/11 A2993 RMK A01 T01350113  RH  086%=      5-min Rain = 0
KLO1 161808Z 35010KT 14/11 A2993 RMK A01 T01350113  RH  087%=      5-min Rain = 0
KLO1 161809Z 35009KT 13/11 A2993 RMK A01 T01340112  RH  086%=      5-min Rain = 0
KLO1 161810Z 00011KT 14/11 A2993 RMK A01 T01350113  RH  087%=      5-min Rain = 0
KLO1 161811Z 01008KT 14/11 A2993 RMK A01 T01350114  RH  087%=      5-min Rain = 0
KLO1 161812Z 35009KT 14/12 A2993 RMK A01 T01360115  RH  087%=      5-min Rain = 0
KLO1 161813Z 35011KT 14/11 A2993 RMK A01 T01370113  RH  086%=      5-min Rain = 0
KLO1 161814Z 34011KT 14/11 A2993 RMK A01 T01360110  RH  085%=      5-min Rain = 0
KLO1 161815Z 34009KT 14/11 A2993 RMK A01 T01350112  RH  086%=      5-min Rain = 0
KLO1 161816Z 36009KT 14/11 A2993 RMK A01 T01350113  RH  086%=      5-min Rain = 0
KLO1 161817Z 36010KT 14/11 A2993 RMK A01 T01370113  RH  086%=      5-min Rain = 0
KLO1 161818Z 36010KT 14/11 A2993 RMK A01 T01370112  RH  085%=      5-min Rain = 0
KLO1 161819Z 35010KT 14/11 A2993 RMK A01 T01370111  RH  085%=      5-min Rain = 0
KLO1 161820Z 00012KT 14/11 A2993 RMK A01 T01360110  RH  084%=      5-min Rain = 0
KLO1 161821Z 35011KT 14/11 A2993 RMK A01 T01360110  RH  084%=      5-min Rain = 0
KLO1 161822Z 35012G17KT 14/11 A2993 RMK A01 T01370109  RH  083%=      5-min Rain = 0
KLO1 161823Z 35011KT 14/11 A2993 RMK A01 T01370107  RH  082%=      5-min Rain = 0
KLO1 161824Z 36011KT 14/11 A2993 RMK A01 T01370107  RH  082%=      5-min Rain = 0
KLO1 161825Z 36011KT 14/11 A2993 RMK A01 T01370107  RH  082%=      5-min Rain = 0
KLO1 161826Z 36011KT 14/11 A2993 RMK A01 T01370106  RH  082%=      5-min Rain = 0
KLO1 161827Z 01013KT 14/11 A2993 RMK A01 T01370107  RH  082%=      5-min Rain = 0
KLO1 161828Z 01012KT 14/11 A2993 RMK A01 T01370107  RH  082%=      5-min Rain = 0
KLO1 161829Z 00012G17KT 14/11 A2993 RMK A01 T01380108  RH  082%=      5-min Rain = 0
KLO1 161830Z 36013KT 14/10 A2993 RMK A01 T01380104  RH  080%=      5-min Rain = 0
KLO1 161831Z 36012G17KT 14/10 A2993 RMK A01 T01370102  RH  079%=      5-min Rain = 0
KLO1 161832Z 01015KT 14/10 A2993 RMK A01 T01370102  RH  079%=      5-min Rain = 0
KLO1 161833Z 01014KT 14/10 A2994 RMK A01 T01370104  RH  080%=      5-min Rain = 0
KLO1 161834Z 00015KT 14/10 A2994 RMK A01 T01380099  RH  077%=      5-min Rain = 0
KLO1 161835Z 35013KT 14/10 A2994 RMK A01 T01360097  RH  077%=      5-min Rain = 0
KLO1 161836Z 36012KT 14/10 A2994 RMK A01 T01360100  RH  078%=      5-min Rain = 0
KLO1 161837Z 01014KT 14/10 A2994 RMK A01 T01370102  RH  079%=      5-min Rain = 0
KLO1 161838Z 00016KT 14/10 A2994 RMK A01 T01380100  RH  078%=      5-min Rain = 0
KLO1 161839Z 00015KT 14/10 A2994 RMK A01 T01370099  RH  078%=      5-min Rain = 0
KLO1 161840Z 35012KT 14/10 A2994 RMK A01 T01370102  RH  079%=      5-min Rain = 0
KLO1 161841Z 36012KT 14/10 A2994 RMK A01 T01370101  RH  079%=      5-min Rain = 0
KLO1 161842Z 01012KT 14/10 A2994 RMK A01 T01370103  RH  079%=      5-min Rain = 0
KLO1 161843Z 00013KT 14/10 A2994 RMK A01 T01380102  RH  079%=      5-min Rain = 0
KLO1 161844Z 00012KT 14/10 A2994 RMK A01 T01390101  RH  078%=      5-min Rain = 0
KLO1 161845Z 02014G19KT 14/10 A2994 RMK A01 T01380104  RH  080%=      5-min Rain = 0
KLO1 161846Z 02016KT 14/10 A2994 RMK A01 T01390102  RH  078%=      5-min Rain = 0
KLO1 161847Z 01011KT 14/10 A2994 RMK A01 T01390102  RH  078%=      5-min Rain = 0
KLO1 161848Z 01013KT 14/10 A2994 RMK A01 T01400104  RH  079%=      5-min Rain = 0
KLO1 161849Z 01017KT 14/10 A2994 RMK A01 T01400100  RH  077%=      5-min Rain = 0
KLO1 161850Z 01015KT 14/10 A2994 RMK A01 T01390099  RH  076%=      5-min Rain = 0
KLO1 161851Z 01014KT 14/10 A2994 RMK A01 T01390101  RH  078%=      5-min Rain = 0
KLO1 161852Z 01014KT 14/10 A2994 RMK A01 T01390099  RH  077%=      5-min Rain = 0
KLO1 161853Z 01014KT 14/10 A2994 RMK A01 T01380100  RH  077%=      5-min Rain = 0
KLO1 161854Z 00015KT 14/10 A2994 RMK A01 T01390100  RH  077%=      5-min Rain = 0
KLO1 161855Z 01013KT 14/10 A2994 RMK A01 T01390098  RH  077%=      5-min Rain = 0
KLO1 161856Z 01013KT 14/10 A2994 RMK A01 T01390101  RH  078%=      5-min Rain = 0
KLO1 161857Z 01012KT 14/10 A2994 RMK A01 T01390103  RH  079%=      5-min Rain = 0
KLO1 161858Z 36013KT 14/10 A2994 RMK A01 T01400101  RH  077%=      5-min Rain = 0
KLO1 161859Z 01012KT 14/10 A2994 RMK A01 T01390102  RH  078%=      5-min Rain = 0
KLO1 161900Z 02013KT 14/10 A2994 RMK A01 T01400104  RH  079%=      5-min Rain = 0
KLO1 161901Z 02013KT 14/10 A2994 RMK A01 T01410103  RH  078%=      5-min Rain = 0
KLO1 161902Z 01014KT 14/10 A2994 RMK A01 T01410103  RH  078%=      5-min Rain = 0
KLO1 161903Z 02015KT 14/10 A2994 RMK A01 T01410101  RH  077%=      5-min Rain = 0
KLO1 161904Z 02013KT 14/10 A2994 RMK A01 T01400102  RH  077%=      5-min Rain = 0
KLO1 161905Z 02013KT 14/10 A2994 RMK A01 T01400102  RH  078%=      5-min Rain = 0
KLO1 161906Z 01015KT 14/10 A2994 RMK A01 T01410099  RH  076%=      5-min Rain = 0
KLO1 161907Z 00014KT 14/10 A2994 RMK A01 T01400099  RH  076%=      5-min Rain = 0
KLO1 161908Z 01017KT 14/10 A2994 RMK A01 T01400098  RH  076%=      5-min Rain = 0
KLO1 161909Z 01011KT 14/10 A2994 RMK A01 T01390100  RH  077%=      5-min Rain = 0
KLO1 161910Z 01012KT 14/10 A2993 RMK A01 T01400099  RH  077%=      5-min Rain = 0
KLO1 161911Z 01012KT 14/10 A2994 RMK A01 T01390100  RH  077%=      5-min Rain = 0
KLO1 161912Z 02010KT 14/10 A2993 RMK A01 T01400101  RH  078%=      5-min Rain = 0
KLO1 161913Z 02011KT 14/11 A2994 RMK A01 T01410105  RH  079%=      5-min Rain = 0
KLO1 161914Z 02014KT 14/10 A2994 RMK A01 T01420102  RH  077%=      5-min Rain = 0
KLO1 161915Z 02012KT 14/10 A2994 RMK A01 T01420102  RH  077%=      5-min Rain = 0
KLO1 161916Z 03014KT 14/10 A2994 RMK A01 T01420101  RH  076%=      5-min Rain = 0
KLO1 161917Z 02014KT 14/10 A2994 RMK A01 T01410100  RH  076%=      5-min Rain = 0
KLO1 161918Z 02017KT 14/10 A2993 RMK A01 T01410101  RH  077%=      5-min Rain = 0
KLO1 161919Z 02015KT 14/10 A2993 RMK A01 T01400100  RH  077%=      5-min Rain = 0
KLO1 161920Z 01011KT 14/10 A2993 RMK A01 T01400101  RH  077%=      5-min Rain = 0
KLO1 161921Z 02014KT 14/10 A2993 RMK A01 T01390100  RH  077%=      5-min Rain = 0
KLO1 161922Z 02015KT 14/10 A2993 RMK A01 T01390100  RH  077%=      5-min Rain = 0
KLO1 161923Z 03014KT 14/10 A2993 RMK A01 T01390098  RH  077%=      5-min Rain = 0
KLO1 161924Z 03013KT 14/10 A2993 RMK A01 T01380099  RH  077%=      5-min Rain = 0
KLO1 161925Z 03014KT 14/10 A2994 RMK A01 T01390100  RH  077%=      5-min Rain = 0
KLO1 161926Z 01013KT 14/10 A2994 RMK A01 T01400102  RH  078%=      5-min Rain = 0
KLO1 161927Z 01012KT 14/10 A2994 RMK A01 T01400101  RH  077%=      5-min Rain = 0
KLO1 161928Z 01014KT 14/10 A2994 RMK A01 T01400099  RH  076%=      5-min Rain = 0
KLO1 161929Z 02012KT 14/10 A2994 RMK A01 T01390097  RH  076%=      5-min Rain = 0
KLO1 161930Z 01013KT 14/10 A2993 RMK A01 T01390097  RH  076%=      5-min Rain = 0
KLO1 161931Z 01012KT 14/10 A2993 RMK A01 T01400100  RH  077%=      5-min Rain = 0
KLO1 161932Z 01013KT 14/10 A2993 RMK A01 T01410101  RH  077%=      5-min Rain = 0
KLO1 161933Z 01011KT 14/10 A2993 RMK A01 T01410099  RH  076%=      5-min Rain = 0
KLO1 161934Z 01013KT 14/10 A2993 RMK A01 T01410099  RH  076%=      5-min Rain = 0
KLO1 161935Z 01013KT 14/10 A2993 RMK A01 T01410099  RH  076%=      5-min Rain = 0
KLO1 161936Z 36013KT 14/10 A2993 RMK A01 T01410097  RH  075%=      5-min Rain = 0
KLO1 161937Z 00012KT 14/10 A2993 RMK A01 T01400099  RH  076%=      5-min Rain = 0
KLO1 161938Z 00012KT 14/10 A2993 RMK A01 T01400098  RH  076%=      5-min Rain = 0
KLO1 161939Z 00011KT 14/10 A2993 RMK A01 T01390098  RH  076%=      5-min Rain = 0
KLO1 161940Z 01013KT 14/10 A2993 RMK A01 T01390098  RH  076%=      5-min Rain = 0
KLO1 161941Z 02014KT 14/10 A2993 RMK A01 T01380100  RH  077%=      5-min Rain = 0
KLO1 161942Z 02014KT 14/10 A2993 RMK A01 T01400099  RH  077%=      5-min Rain = 0
KLO1 161943Z 02013KT 14/10 A2993 RMK A01 T01400098  RH  076%=      5-min Rain = 0
KLO1 161944Z 01010KT 14/10 A2993 RMK A01 T01400099  RH  077%=      5-min Rain = 0
KLO1 161945Z 02011KT 14/10 A2993 RMK A01 T01410101  RH  077%=      5-min Rain = 0
KLO1 161946Z 02013KT 14/10 A2993 RMK A01 T01410101  RH  077%=      5-min Rain = 0
KLO1 161947Z 02011KT 14/10 A2993 RMK A01 T01420100  RH  076%=      5-min Rain = 0
KLO1 161948Z 03011KT 14/10 A2993 RMK A01 T01420102  RH  077%=      5-min Rain = 0
KLO1 161949Z 03013KT 14/10 A2993 RMK A01 T01420101  RH  076%=      5-min Rain = 0
KLO1 161950Z 03011KT 14/10 A2993 RMK A01 T01410100  RH  077%=      5-min Rain = 0
KLO1 161951Z 03011KT 14/10 A2993 RMK A01 T01400101  RH  077%=      5-min Rain = 0
KLO1 161952Z 03012KT 14/10 A2993 RMK A01 T01400100  RH  077%=      5-min Rain = 0
KLO1 161953Z 02013KT 14/10 A2993 RMK A01 T01410101  RH  077%=      5-min Rain = 0
KLO1 161954Z 01013KT 14/10 A2993 RMK A01 T01420102  RH  077%=      5-min Rain = 0
KLO1 161955Z 02013KT 14/10 A2993 RMK A01 T01430101  RH  076%=      5-min Rain = 0
KLO1 161956Z 02013KT 14/10 A2993 RMK A01 T01430101  RH  076%=      5-min Rain = 0
KLO1 161957Z 01013KT 14/10 A2993 RMK A01 T01430101  RH  076%=      5-min Rain = 0
KLO1 161958Z 01011KT 14/10 A2993 RMK A01 T01440101  RH  075%=      5-min Rain = 0
KLO1 161959Z 01011KT 14/10 A2993 RMK A01 T01430101  RH  075%=      5-min Rain = 0
KLO1 162000Z 01010KT 14/11 A2993 RMK A01 T01440105  RH  077%=      5-min Rain = 0
KLO1 162001Z 01011KT 15/10 A2993 RMK A01 T01450103  RH  076%=      5-min Rain = 0
KLO1 162002Z 01014KT 15/10 A2993 RMK A01 T01450100  RH  074%=      5-min Rain = 0
KLO1 162003Z 01014KT 14/10 A2993 RMK A01 T01440099  RH  074%=      5-min Rain = 0
KLO1 162004Z 01012KT 14/10 A2993 RMK A01 T01430098  RH  074%=      5-min Rain = 0
KLO1 162005Z 01012KT 14/10 A2993 RMK A01 T01430099  RH  075%=      5-min Rain = 0
KLO1 162006Z 03011KT 14/10 A2993 RMK A01 T01430100  RH  075%=      5-min Rain = 0
KLO1 162007Z 03012KT 14/10 A2993 RMK A01 T01440100  RH  075%=      5-min Rain = 0
KLO1 162008Z 03013KT 14/10 A2994 RMK A01 T01440098  RH  074%=      5-min Rain = 0
KLO1 162009Z 03013KT 14/10 A2994 RMK A01 T01440099  RH  074%=      5-min Rain = 0
KLO1 162010Z 03015KT 14/10 A2994 RMK A01 T01440099  RH  074%=      5-min Rain = 0
KLO1 162011Z 02014KT 14/10 A2994 RMK A01 T01430099  RH  075%=      5-min Rain = 0
KLO1 162012Z 01015KT 14/10 A2994 RMK A01 T01430097  RH  074%=      5-min Rain = 0
KLO1 162013Z 01013KT 14/10 A2993 RMK A01 T01430098  RH  074%=      5-min Rain = 0
KLO1 162014Z 01013KT 14/10 A2993 RMK A01 T01430098  RH  074%=      5-min Rain = 0
KLO1 162015Z 02013KT 14/10 A2993 RMK A01 T01440098  RH  074%=      5-min Rain = 0
KLO1 162016Z 01010KT 14/10 A2993 RMK A01 T01440099  RH  074%=      5-min Rain = 0
KLO1 162017Z 01010KT 14/10 A2993 RMK A01 T01440100  RH  075%=      5-min Rain = 0
KLO1 162018Z 02013KT 15/10 A2993 RMK A01 T01450101  RH  075%=      5-min Rain = 0
KLO1 162019Z 02013KT 15/10 A2993 RMK A01 T01450099  RH  074%=      5-min Rain = 0
KLO1 162020Z 01011KT 15/10 A2993 RMK A01 T01450100  RH  074%=      5-min Rain = 0
KLO1 162021Z 02012KT 15/10 A2993 RMK A01 T01450098  RH  073%=      5-min Rain = 0
KLO1 162022Z 02010KT 15/10 A2993 RMK A01 T01450099  RH  074%=      5-min Rain = 0
KLO1 162023Z 02012KT 15/10 A2993 RMK A01 T01460101  RH  074%=      5-min Rain = 0
KLO1 162024Z 02013KT 15/10 A2993 RMK A01 T01460099  RH  074%=      5-min Rain = 0
KLO1 162025Z 01012KT 15/10 A2993 RMK A01 T01460100  RH  074%=      5-min Rain = 0
KLO1 162026Z 02011KT 15/10 A2994 RMK A01 T01460101  RH  074%=      5-min Rain = 0
KLO1 162027Z 02015KT 15/10 A2994 RMK A01 T01480100  RH  073%=      5-min Rain = 0
KLO1 162028Z 03013KT 15/10 A2994 RMK A01 T01470099  RH  073%=      5-min Rain = 0
KLO1 162029Z 02013KT 15/10 A2994 RMK A01 T01460098  RH  073%=      5-min Rain = 0
KLO1 162030Z 02013KT 15/10 A2994 RMK A01 T01460096  RH  072%=      5-min Rain = 0
KLO1 162031Z 03014KT 15/10 A2994 RMK A01 T01450097  RH  073%=      5-min Rain = 0
KLO1 162032Z 02014KT 15/10 A2994 RMK A01 T01450098  RH  073%=      5-min Rain = 0
KLO1 162033Z 02015KT 15/10 A2994 RMK A01 T01460098  RH  073%=      5-min Rain = 0
KLO1 162034Z 02014KT 15/10 A2994 RMK A01 T01460097  RH  072%=      5-min Rain = 0
KLO1 162035Z 02014KT 15/10 A2994 RMK A01 T01450098  RH  073%=      5-min Rain = 0
KLO1 162036Z 02014KT 15/10 A2994 RMK A01 T01460098  RH  073%=      5-min Rain = 0
KLO1 162037Z 02013KT 15/10 A2994 RMK A01 T01460098  RH  073%=      5-min Rain = 0
KLO1 162038Z 02013KT 15/10 A2994 RMK A01 T01460097  RH  072%=      5-min Rain = 0
KLO1 162039Z 03013KT 15/10 A2995 RMK A01 T01460097  RH  072%=      5-min Rain = 0
KLO1 162040Z 03014KT 15/10 A2995 RMK A01 T01470095  RH  071%=      5-min Rain = 0
KLO1 162041Z 02015KT 15/09 A2995 RMK A01 T01460093  RH  070%=      5-min Rain = 0
KLO1 162042Z 02014KT 15/09 A2995 RMK A01 T01460092  RH  070%=      5-min Rain = 0
KLO1 162043Z 02016KT 15/09 A2995 RMK A01 T01460092  RH  070%=      5-min Rain = 0
KLO1 162044Z 03016KT 15/09 A2995 RMK A01 T01460092  RH  070%=      5-min Rain = 0
KLO1 162045Z 03016KT 15/09 A2994 RMK A01 T01460092  RH  070%=      5-min Rain = 0
KLO1 162046Z 02016KT 15/09 A2994 RMK A01 T01450093  RH  071%=      5-min Rain = 0
KLO1 162047Z 01013KT 15/09 A2994 RMK A01 T01450093  RH  071%=      5-min Rain = 0
KLO1 162048Z 02013KT 15/09 A2994 RMK A01 T01450093  RH  071%=      5-min Rain = 0
KLO1 162049Z 01016KT 15/09 A2994 RMK A01 T01460092  RH  070%=      5-min Rain = 0
KLO1 162050Z 02015KT 15/09 A2995 RMK A01 T01450090  RH  069%=      5-min Rain = 0
KLO1 162051Z 02013KT 15/09 A2994 RMK A01 T01460092  RH  070%=      5-min Rain = 0
KLO1 162052Z 02013KT 15/09 A2994 RMK A01 T01450092  RH  070%=      5-min Rain = 0
KLO1 162053Z 02014KT 15/09 A2994 RMK A01 T01450091  RH  070%=      5-min Rain = 0
KLO1 162054Z 03015KT 15/09 A2994 RMK A01 T01450091  RH  070%=      5-min Rain = 0
KLO1 162055Z 03012KT 15/09 A2994 RMK A01 T01450092  RH  070%=      5-min Rain = 0
KLO1 162056Z 03012KT 15/09 A2994 RMK A01 T01460094  RH  071%=      5-min Rain = 0
KLO1 162057Z 04014KT 15/09 A2993 RMK A01 T01460093  RH  071%=      5-min Rain = 0
KLO1 162058Z 04016KT 15/09 A2993 RMK A01 T01460093  RH  071%=      5-min Rain = 0
KLO1 162059Z 03015KT 15/09 A2993 RMK A01 T01460094  RH  071%=      5-min Rain = 0
KLO1 162100Z 03015KT 15/09 A2993 RMK A01 T01460093  RH  070%=      5-min Rain = 0
KLO1 162101Z 03015KT 15/09 A2993 RMK A01 T01460092  RH  070%=      5-min Rain = 0
KLO1 162102Z 03013KT 15/09 A2993 RMK A01 T01460093  RH  070%=      5-min Rain = 0
KLO1 162103Z 03013KT 15/10 A2993 RMK A01 T01460095  RH  071%=      5-min Rain = 0
KLO1 162104Z 05013KT 15/10 A2993 RMK A01 T01480097  RH  071%=      5-min Rain = 0
KLO1 162105Z 05013KT 15/09 A2993 RMK A01 T01480094  RH  070%=      5-min Rain = 0
KLO1 162106Z 04011KT 15/10 A2993 RMK A01 T01480095  RH  071%=      5-min Rain = 0
KLO1 162107Z 04012KT 15/10 A2993 RMK A01 T01490096  RH  071%=      5-min Rain = 0
KLO1 162108Z 04013KT 15/09 A2993 RMK A01 T01490094  RH  069%=      5-min Rain = 0
KLO1 162109Z 03014KT 15/09 A2993 RMK A01 T01490092  RH  069%=      5-min Rain = 0
KLO1 162110Z 03013KT 15/09 A2993 RMK A01 T01490091  RH  068%=      5-min Rain = 0
KLO1 162111Z 03014KT 15/09 A2993 RMK A01 T01490092  RH  069%=      5-min Rain = 0
KLO1 162112Z 05012KT 15/10 A2993 RMK A01 T01490095  RH  070%=      5-min Rain = 0
KLO1 162113Z 04012KT 15/10 A2993 RMK A01 T01520096  RH  070%=      5-min Rain = 0
KLO1 162114Z 04013KT 15/10 A2993 RMK A01 T01520095  RH  069%=      5-min Rain = 0
KLO1 162115Z 04015KT 15/09 A2993 RMK A01 T01500094  RH  069%=      5-min Rain = 0
KLO1 162116Z 04012KT 15/10 A2993 RMK A01 T01490096  RH  071%=      5-min Rain = 0
KLO1 162117Z 05012KT 15/10 A2993 RMK A01 T01490096  RH  071%=      5-min Rain = 0
KLO1 162118Z 06011KT 15/10 A2993 RMK A01 T01480096  RH  071%=      5-min Rain = 0
KLO1 162119Z 05011KT 15/10 A2993 RMK A01 T01480097  RH  072%=      5-min Rain = 0
KLO1 162120Z 05009KT 15/10 A2993 RMK A01 T01470098  RH  072%=      5-min Rain = 0
KLO1 162121Z 04011KT 15/10 A2993 RMK A01 T01480097  RH  072%=      5-min Rain = 0
KLO1 162122Z 04012KT 15/10 A2993 RMK A01 T01480097  RH  071%=      5-min Rain = 0
KLO1 162123Z 05012KT 15/10 A2993 RMK A01 T01480097  RH  071%=      5-min Rain = 0
KLO1 162124Z 03014KT 15/09 A2993 RMK A01 T01480094  RH  070%=      5-min Rain = 0
KLO1 162125Z 04014KT 15/10 A2993 RMK A01 T01470095  RH  071%=      5-min Rain = 0
KLO1 162126Z 05014KT 15/10 A2993 RMK A01 T01470096  RH  071%=      5-min Rain = 0
KLO1 162127Z 05011KT 15/10 A2993 RMK A01 T01460096  RH  072%=      5-min Rain = 0
KLO1 162128Z 05011KT 15/10 A2993 RMK A01 T01470098  RH  072%=      5-min Rain = 0
KLO1 162129Z 05012KT 15/10 A2993 RMK A01 T01480096  RH  071%=      5-min Rain = 0
KLO1 162130Z 04012KT 15/10 A2994 RMK A01 T01480096  RH  071%=      5-min Rain = 0
KLO1 162131Z 04012KT 15/10 A2994 RMK A01 T01470096  RH  071%=      5-min Rain = 0
KLO1 162132Z 05012KT 15/10 A2994 RMK A01 T01470097  RH  072%=      5-min Rain = 0
KLO1 162133Z 04015KT 15/10 A2994 RMK A01 T01470095  RH  071%=      5-min Rain = 0
KLO1 162134Z 04012KT 15/10 A2994 RMK A01 T01470095  RH  071%=      5-min Rain = 0
KLO1 162135Z 05013KT 15/10 A2994 RMK A01 T01480096  RH  071%=      5-min Rain = 0
KLO1 162136Z 05013KT 15/09 A2994 RMK A01 T01470093  RH  070%=      5-min Rain = 0
KLO1 162137Z 05009KT 15/09 A2994 RMK A01 T01460094  RH  071%=      5-min Rain = 0
KLO1 162138Z 04011KT 15/10 A2994 RMK A01 T01460096  RH  072%=      5-min Rain = 0
KLO1 162139Z 06012KT 15/10 A2994 RMK A01 T01470096  RH  071%=      5-min Rain = 0
KLO1 162140Z 04011KT 15/10 A2994 RMK A01 T01470095  RH  071%=      5-min Rain = 0
KLO1 162141Z 05010KT 15/10 A2994 RMK A01 T01480096  RH  071%=      5-min Rain = 0
KLO1 162142Z 05011KT 15/10 A2994 RMK A01 T01480097  RH  071%=      5-min Rain = 0
KLO1 162143Z 04013KT 15/10 A2994 RMK A01 T01480096  RH  071%=      5-min Rain = 0
KLO1 162144Z 04013KT 15/09 A2994 RMK A01 T01480094  RH  070%=      5-min Rain = 0
KLO1 162145Z 04014KT 15/09 A2994 RMK A01 T01480094  RH  070%=      5-min Rain = 0
KLO1 162146Z 03014KT 15/09 A2994 RMK A01 T01470093  RH  070%=      5-min Rain = 0
KLO1 162147Z 04013KT 15/09 A2993 RMK A01 T01470094  RH  070%=      5-min Rain = 0
KLO1 162148Z 03012KT 15/09 A2993 RMK A01 T01470094  RH  070%=      5-min Rain = 0
KLO1 162149Z 05013KT 15/10 A2993 RMK A01 T01470095  RH  071%=      5-min Rain = 0
KLO1 162150Z 05013KT 15/09 A2993 RMK A01 T01470093  RH  070%=      5-min Rain = 0
KLO1 162151Z 05011KT 15/09 A2993 RMK A01 T01470094  RH  070%=      5-min Rain = 0
KLO1 162152Z 05013KT 15/09 A2993 RMK A01 T01470094  RH  071%=      5-min Rain = 0
KLO1 162153Z 05013KT 15/10 A2993 RMK A01 T01480096  RH  071%=      5-min Rain = 0
KLO1 162154Z 05015KT 15/09 A2993 RMK A01 T01480094  RH  070%=      5-min Rain = 0
KLO1 162155Z 05013KT 15/09 A2993 RMK A01 T01470093  RH  070%=      5-min Rain = 0
KLO1 162156Z 05013KT 15/09 A2993 RMK A01 T01470094  RH  071%=      5-min Rain = 0
KLO1 162157Z 06014KT 15/09 A2992 RMK A01 T01470094  RH  071%=      5-min Rain = 0
KLO1 162158Z 04015KT 15/09 A2993 RMK A01 T01470094  RH  071%=      5-min Rain = 0
KLO1 162159Z 04014KT 15/09 A2993 RMK A01 T01470093  RH  070%=      5-min Rain = 0
KLO1 162200Z 06012KT 15/10 A2993 RMK A01 T01470095  RH  071%=      5-min Rain = 0
KLO1 162201Z 05017KT 15/10 A2993 RMK A01 T01480095  RH  071%=      5-min Rain = 0
KLO1 162202Z 06013KT 15/09 A2993 RMK A01 T01460094  RH  071%=      5-min Rain = 0
KLO1 162203Z 06013KT 15/10 A2993 RMK A01 T01450096  RH  072%=      5-min Rain = 0
KLO1 162204Z 06013KT 15/10 A2993 RMK A01 T01460096  RH  072%=      5-min Rain = 0
KLO1 162205Z 06014KT 15/10 A2993 RMK A01 T01460095  RH  072%=      5-min Rain = 0
KLO1 162206Z 05013KT 15/10 A2993 RMK A01 T01450095  RH  072%=      5-min Rain = 0
KLO1 162207Z 05013KT 15/09 A2993 RMK A01 T01450094  RH  071%=      5-min Rain = 0
KLO1 162208Z 04015KT 14/09 A2993 RMK A01 T01440094  RH  072%=      5-min Rain = 0
KLO1 162209Z 05014KT 14/09 A2994 RMK A01 T01440094  RH  072%=      5-min Rain = 0
KLO1 162210Z 05015KT 14/09 A2994 RMK A01 T01440093  RH  072%=      5-min Rain = 0
KLO1 162211Z 06016KT 14/09 A2994 RMK A01 T01440094  RH  072%=      5-min Rain = 0
KLO1 162212Z 05015KT 14/09 A2994 RMK A01 T01420091  RH  071%=      5-min Rain = 0
KLO1 162213Z 04017KT 14/09 A2994 RMK A01 T01410092  RH  072%=      5-min Rain = 0
KLO1 162214Z 05015KT 14/09 A2994 RMK A01 T01400093  RH  073%=      5-min Rain = 0
KLO1 162215Z 05016KT 14/09 A2994 RMK A01 T01400093  RH  073%=      5-min Rain = 0
KLO1 162216Z 06016KT 14/09 A2994 RMK A01 T01400093  RH  074%=      5-min Rain = 0
KLO1 162217Z 05015KT 14/09 A2994 RMK A01 T01390093  RH  074%=      5-min Rain = 0
KLO1 162218Z 05014KT 14/09 A2994 RMK A01 T01380093  RH  074%=      5-min Rain = 0
KLO1 162219Z 06015KT 14/09 A2994 RMK A01 T01380094  RH  075%=      5-min Rain = 0
KLO1 162220Z 05015KT 14/09 A2994 RMK A01 T01370094  RH  075%=      5-min Rain = 0
KLO1 162221Z 05015KT 14/09 A2994 RMK A01 T01360093  RH  075%=      5-min Rain = 0
KLO1 162222Z 05016KT 14/09 A2994 RMK A01 T01360094  RH  075%=      5-min Rain = 0
KLO1 162223Z 06015KT 14/09 A2994 RMK A01 T01350094  RH  076%=      5-min Rain = 0
KLO1 162224Z 06016KT 14/09 A2994 RMK A01 T01350094  RH  076%=      5-min Rain = 0
KLO1 162225Z 06017KT 14/10 A2994 RMK A01 T01350095  RH  077%=      5-min Rain = 0
KLO1 162226Z 05015KT 13/10 A2995 RMK A01 T01340095  RH  077%=      5-min Rain = 0
KLO1 162227Z 05011KT 13/10 A2995 RMK A01 T01340095  RH  077%=      5-min Rain = 0
KLO1 162228Z 05011KT 13/10 A2995 RMK A01 T01340096  RH  078%=      5-min Rain = 0
KLO1 162229Z 05015KT 14/10 A2995 RMK A01 T01350095  RH  077%=      5-min Rain = 0
KLO1 162230Z 04015KT 13/09 A2995 RMK A01 T01340094  RH  076%=      5-min Rain = 0
KLO1 162231Z 04015KT 13/09 A2995 RMK A01 T01340094  RH  077%=      5-min Rain = 0
KLO1 162232Z 04015KT 13/09 A2995 RMK A01 T01330093  RH  076%=      5-min Rain = 0
KLO1 162233Z 04014G19KT 13/09 A2995 RMK A01 T01330093  RH  076%=      5-min Rain = 0
KLO1 162234Z 04015KT 13/09 A2995 RMK A01 T01330092  RH  076%=      5-min Rain = 0
KLO1 162235Z 03014KT 13/09 A2995 RMK A01 T01330091  RH  076%=      5-min Rain = 0
KLO1 162236Z 03014KT 13/09 A2995 RMK A01 T01340091  RH  075%=      5-min Rain = 0
KLO1 162237Z 04014G19KT 14/09 A2995 RMK A01 T01360092  RH  075%=      5-min Rain = 0
KLO1 162238Z 04014KT 14/09 A2995 RMK A01 T01370092  RH  074%=      5-min Rain = 0
KLO1 162239Z 05013KT 14/09 A2995 RMK A01 T01370091  RH  074%=      5-min Rain = 0
KLO1 162240Z 05014KT 14/09 A2995 RMK A01 T01370090  RH  073%=      5-min Rain = 0
KLO1 162241Z 05016KT 14/09 A2995 RMK A01 T01360088  RH  073%=      5-min Rain = 0
KLO1 162242Z 05016KT 13/09 A2995 RMK A01 T01340088  RH  073%=      5-min Rain = 0
KLO1 162243Z 05016KT 13/09 A2995 RMK A01 T01340088  RH  074%=      5-min Rain = 0
KLO1 162244Z 05015KT 13/09 A2995 RMK A01 T01340087  RH  073%=      5-min Rain = 0
KLO1 162245Z 05012KT 13/09 A2995 RMK A01 T01340088  RH  074%=      5-min Rain = 0
KLO1 162246Z 06014KT 13/09 A2995 RMK A01 T01340089  RH  074%=      5-min Rain = 0
KLO1 162247Z 05012KT 14/09 A2995 RMK A01 T01350089  RH  073%=      5-min Rain = 0
KLO1 162248Z 06016KT 14/09 A2995 RMK A01 T01350089  RH  074%=      5-min Rain = 0
KLO1 162249Z 06014G20KT 13/09 A2995 RMK A01 T01340088  RH  074%=      5-min Rain = 0
KLO1 162250Z 05013KT 13/09 A2995 RMK A01 T01320087  RH  074%=      5-min Rain = 0
KLO1 162251Z 05015KT 13/09 A2995 RMK A01 T01310088  RH  075%=      5-min Rain = 0
KLO1 162252Z 05014KT 13/09 A2995 RMK A01 T01310087  RH  075%=      5-min Rain = 0
KLO1 162253Z 05012KT 13/09 A2995 RMK A01 T01290086  RH  075%=      5-min Rain = 0
KLO1 162254Z 05014KT 13/09 A2995 RMK A01 T01280087  RH  076%=      5-min Rain = 0
KLO1 162255Z 06014KT 13/09 A2995 RMK A01 T01280087  RH  076%=      5-min Rain = 0
KLO1 162256Z 06013G19KT 13/09 A2995 RMK A01 T01270087  RH  077%=      5-min Rain = 0
KLO1 162257Z 06016KT 13/09 A2995 RMK A01 T01270087  RH  077%=      5-min Rain = 0
KLO1 162258Z 06011KT 13/09 A2995 RMK A01 T01250086  RH  077%=      5-min Rain = 0
KLO1 162259Z 07013KT 13/09 A2995 RMK A01 T01250087  RH  078%=      5-min Rain = 0
KLO1 162300Z 07014KT 12/09 A2995 RMK A01 T01240085  RH  077%=      5-min Rain = 0
KLO1 162301Z 07014KT 12/09 A2995 RMK A01 T01240085  RH  077%=      5-min Rain = 0
KLO1 162302Z 06012KT 12/09 A2995 RMK A01 T01230085  RH  077%=      5-min Rain = 0
KLO1 162303Z 07014KT 12/09 A2995 RMK A01 T01240086  RH  077%=      5-min Rain = 0
KLO1 162304Z 07013KT 12/09 A2995 RMK A01 T01240085  RH  077%=      5-min Rain = 0
KLO1 162305Z 06015KT 12/09 A2995 RMK A01 T01240085  RH  077%=      5-min Rain = 0
KLO1 162306Z 06015KT 12/08 A2995 RMK A01 T01240084  RH  077%=      5-min Rain = 0
KLO1 162307Z 06014KT 12/09 A2995 RMK A01 T01240085  RH  077%=      5-min Rain = 0
KLO1 162308Z 06015KT 12/09 A2995 RMK A01 T01240085  RH  077%=      5-min Rain = 0
KLO1 162309Z 06013KT 13/09 A2995 RMK A01 T01250085  RH  077%=      5-min Rain = 0
KLO1 162310Z 05011KT 13/09 A2996 RMK A01 T01260086  RH  077%=      5-min Rain = 0
KLO1 162311Z 06011KT 13/09 A2996 RMK A01 T01270087  RH  077%=      5-min Rain = 0
KLO1 162312Z 05012G17KT 13/09 A2996 RMK A01 T01280087  RH  076%=      5-min Rain = 0
KLO1 162313Z 05016KT 13/09 A2996 RMK A01 T01290086  RH  075%=      5-min Rain = 0
KLO1 162314Z 05014KT 13/09 A2996 RMK A01 T01290085  RH  075%=      5-min Rain = 0
KLO1 162315Z 04014KT 13/09 A2996 RMK A01 T01290085  RH  075%=      5-min Rain = 0
KLO1 162316Z 04016KT 13/08 A2996 RMK A01 T01290084  RH  074%=      5-min Rain = 0
KLO1 162317Z 05016KT 13/08 A2996 RMK A01 T01300084  RH  073%=      5-min Rain = 0
KLO1 162318Z 04016KT 13/08 A2996 RMK A01 T01300083  RH  073%=      5-min Rain = 0
KLO1 162319Z 04016KT 13/08 A2996 RMK A01 T01290084  RH  074%=      5-min Rain = 0
KLO1 162320Z 05015G20KT 13/08 A2996 RMK A01 T01290082  RH  073%=      5-min Rain = 0
KLO1 162321Z 05017KT 13/08 A2996 RMK A01 T01280082  RH  073%=      5-min Rain = 0
KLO1 162322Z 04015KT 13/08 A2996 RMK A01 T01280082  RH  073%=      5-min Rain = 0
KLO1 162323Z 04015KT 13/08 A2996 RMK A01 T01290083  RH  074%=      5-min Rain = 0
KLO1 162324Z 04015KT 13/08 A2996 RMK A01 T01300083  RH  073%=      5-min Rain = 0
KLO1 162325Z 04014KT 13/08 A2997 RMK A01 T01300082  RH  073%=      5-min Rain = 0
KLO1 162326Z 03015KT 13/08 A2997 RMK A01 T01310084  RH  073%=      5-min Rain = 0
KLO1 162327Z 03015KT 13/08 A2997 RMK A01 T01320082  RH  072%=      5-min Rain = 0
KLO1 162328Z 03015KT 13/08 A2997 RMK A01 T01310083  RH  072%=      5-min Rain = 0
KLO1 162329Z 04016KT 13/08 A2997 RMK A01 T01310083  RH  073%=      5-min Rain = 0
KLO1 162330Z 04018KT 13/08 A2997 RMK A01 T01300082  RH  072%=      5-min Rain = 0
KLO1 162331Z 04016KT 13/08 A2997 RMK A01 T01290082  RH  073%=      5-min Rain = 0
KLO1 162332Z 04017KT 13/08 A2997 RMK A01 T01290082  RH  073%=      5-min Rain = 0
KLO1 162333Z 04018KT 13/08 A2997 RMK A01 T01290082  RH  073%=      5-min Rain = 0
KLO1 162334Z 04016KT 13/08 A2997 RMK A01 T01290082  RH  073%=      5-min Rain = 0
KLO1 162335Z 04018KT 13/08 A2997 RMK A01 T01290082  RH  073%=      5-min Rain = 0
KLO1 162336Z 04015KT 13/08 A2997 RMK A01 T01290082  RH  073%=      5-min Rain = 0
KLO1 162337Z 03017KT 13/08 A2997 RMK A01 T01290082  RH  073%=      5-min Rain = 0
KLO1 162338Z 03018KT 13/08 A2998 RMK A01 T01280081  RH  073%=      5-min Rain = 0
KLO1 162339Z 03017KT 13/08 A2998 RMK A01 T01270081  RH  073%=      5-min Rain = 0
KLO1 162340Z 04015KT 13/08 A2998 RMK A01 T01270081  RH  073%=      5-min Rain = 0
KLO1 162341Z 04016KT 13/08 A2998 RMK A01 T01270081  RH  073%=      5-min Rain = 0
KLO1 162342Z 04015KT 13/08 A2998 RMK A01 T01270080  RH  073%=      5-min Rain = 0
KLO1 162343Z 03013KT 13/08 A2998 RMK A01 T01270079  RH  073%=      5-min Rain = 0
KLO1 162344Z 04011KT 13/08 A2998 RMK A01 T01270079  RH  073%=      5-min Rain = 0
KLO1 162345Z 04011KT 13/08 A2998 RMK A01 T01270080  RH  073%=      5-min Rain = 0
KLO1 162346Z 04014KT 13/08 A2998 RMK A01 T01270080  RH  073%=      5-min Rain = 0
KLO1 162347Z 03012KT 13/08 A2998 RMK A01 T01270079  RH  073%=      5-min Rain = 0
KLO1 162348Z 04014KT 13/08 A2998 RMK A01 T01270079  RH  073%=      5-min Rain = 0
KLO1 162349Z 04014KT 13/08 A2998 RMK A01 T01270079  RH  073%=      5-min Rain = 0
KLO1 162350Z 03014KT 13/08 A2998 RMK A01 T01270078  RH  072%=      5-min Rain = 0
KLO1 162351Z 04014KT 13/08 A2998 RMK A01 T01270078  RH  072%=      5-min Rain = 0
KLO1 162352Z 04016G21KT 13/08 A2998 RMK A01 T01270077  RH  072%=      5-min Rain = 0
KLO1 162353Z 04015KT 13/08 A2998 RMK A01 T01270076  RH  071%=      5-min Rain = 0
KLO1 162354Z 04016KT 13/08 A2998 RMK A01 T01270077  RH  072%=      5-min Rain = 0
KLO1 162355Z 03017KT 13/08 A2998 RMK A01 T01270076  RH  071%=      5-min Rain = 0
KLO1 162356Z 03014KT 13/08 A2998 RMK A01 T01270076  RH  071%=      5-min Rain = 0
KLO1 162357Z 04014KT 13/08 A2998 RMK A01 T01260077  RH  072%=      5-min Rain = 0
KLO1 162358Z 04014KT 13/08 A2998 RMK A01 T01270077  RH  072%=      5-min Rain = 0
KLO1 162359Z 03014KT 13/08 A2998 RMK A01 T01270076  RH  071%=      5-min Rain = 0
KLO1 170000Z 04012KT 13/08 A2998 RMK A01 T01270077  RH  072%=      5-min Rain = 0
KLO1 170001Z 04014KT 13/08 A2998 RMK A01 T01270076  RH  071%=      5-min Rain = 0
KLO1 170002Z 04016KT 13/08 A2998 RMK A01 T01270076  RH  071%=      5-min Rain = 0
KLO1 170003Z 04014KT 13/08 A2998 RMK A01 T01270075  RH  071%=      5-min Rain = 0
KLO1 170004Z 04015G20KT 13/08 A2998 RMK A01 T01270076  RH  071%=      5-min Rain = 0
KLO1 170005Z 03014KT 13/08 A2998 RMK A01 T01270075  RH  070%=      5-min Rain = 0
KLO1 170006Z 03013KT 13/08 A2998 RMK A01 T01270075  RH  071%=      5-min Rain = 0
KLO1 170007Z 04014KT 13/08 A2998 RMK A01 T01270075  RH  071%=      5-min Rain = 0
KLO1 170008Z 04014KT 13/08 A2998 RMK A01 T01270075  RH  071%=      5-min Rain = 0
KLO1 170009Z 04013KT 13/08 A2998 RMK A01 T01270076  RH  071%=      5-min Rain = 0
KLO1 170010Z 04011KT 13/08 A2998 RMK A01 T01280077  RH  071%=      5-min Rain = 0
KLO1 170011Z 04012KT 13/08 A2998 RMK A01 T01280077  RH  071%=      5-min Rain = 0
KLO1 170012Z 04013KT 13/08 A2998 RMK A01 T01280077  RH  071%=      5-min Rain = 0
KLO1 170013Z 03017KT 13/08 A2998 RMK A01 T01280075  RH  070%=      5-min Rain = 0
KLO1 170014Z 03016KT 13/07 A2998 RMK A01 T01280073  RH  069%=      5-min Rain = 0
KLO1 170015Z 04016KT 13/07 A2998 RMK A01 T01280073  RH  069%=      5-min Rain = 0
KLO1 170016Z 04018KT 13/07 A2997 RMK A01 T01280072  RH  069%=      5-min Rain = 0
KLO1 170017Z 04018KT 13/07 A2997 RMK A01 T01280072  RH  069%=      5-min Rain = 0
KLO1 170018Z 04016G21KT 13/07 A2997 RMK A01 T01270072  RH  069%=      5-min Rain = 0
KLO1 170019Z 04015KT 13/07 A2997 RMK A01 T01270072  RH  069%=      5-min Rain = 0
KLO1 170020Z 04013KT 13/07 A2997 RMK A01 T01270073  RH  069%=      5-min Rain = 0
KLO1 170021Z 05016G21KT 13/07 A2997 RMK A01 T01270073  RH  070%=      5-min Rain = 0
KLO1 170022Z 04016KT 13/07 A2997 RMK A01 T01260072  RH  069%=      5-min Rain = 0
KLO1 170023Z 04017KT 13/07 A2997 RMK A01 T01250071  RH  070%=      5-min Rain = 0
KLO1 170024Z 04016KT 13/07 A2997 RMK A01 T01250070  RH  069%=      5-min Rain = 0
KLO1 170025Z 04014KT 12/07 A2997 RMK A01 T01240070  RH  070%=      5-min Rain = 0
KLO1 170026Z 03017KT 12/07 A2997 RMK A01 T01240071  RH  070%=      5-min Rain = 0
KLO1 170027Z 04016KT 12/07 A2998 RMK A01 T01240071  RH  070%=      5-min Rain = 0
KLO1 170028Z 04013KT 12/07 A2998 RMK A01 T01240071  RH  070%=      5-min Rain = 0
KLO1 170029Z 04011G16KT 12/07 A2998 RMK A01 T01240072  RH  071%=      5-min Rain = 0
KLO1 170030Z 04016KT 12/07 A2998 RMK A01 T01240072  RH  070%=      5-min Rain = 0
KLO1 170031Z 04014KT 12/07 A2998 RMK A01 T01240070  RH  070%=      5-min Rain = 0
KLO1 170032Z 04012KT 12/07 A2997 RMK A01 T01240071  RH  070%=      5-min Rain = 0
KLO1 170033Z 04014KT 12/07 A2997 RMK A01 T01240071  RH  070%=      5-min Rain = 0
KLO1 170034Z 05015KT 12/07 A2997 RMK A01 T01240071  RH  070%=      5-min Rain = 0
KLO1 170035Z 04014KT 12/07 A2997 RMK A01 T01240071  RH  070%=      5-min Rain = 0
KLO1 170036Z 04013KT 12/07 A2997 RMK A01 T01240072  RH  070%=      5-min Rain = 0
KLO1 170037Z 04013KT 12/07 A2998 RMK A01 T01240072  RH  071%=      5-min Rain = 0
KLO1 170038Z 04011KT 12/07 A2998 RMK A01 T01240073  RH  071%=      5-min Rain = 0
KLO1 170039Z 04014KT 12/07 A2998 RMK A01 T01240073  RH  071%=      5-min Rain = 0
KLO1 170040Z 04016KT 12/07 A2998 RMK A01 T01240071  RH  070%=      5-min Rain = 0
KLO1 170041Z 04016KT 12/07 A2998 RMK A01 T01240070  RH  069%=      5-min Rain = 0
KLO1 170042Z 04016KT 12/07 A2998 RMK A01 T01240070  RH  069%=      5-min Rain = 0
KLO1 170043Z 04015KT 12/07 A2998 RMK A01 T01240069  RH  069%=      5-min Rain = 0
KLO1 170044Z 05015KT 13/07 A2998 RMK A01 T01250068  RH  069%=      5-min Rain = 0
KLO1 170045Z 04015G20KT 12/07 A2998 RMK A01 T01240068  RH  069%=      5-min Rain = 0
KLO1 170046Z 05016KT 12/07 A2998 RMK A01 T01240067  RH  068%=      5-min Rain = 0
KLO1 170047Z 05014KT 12/07 A2998 RMK A01 T01240067  RH  068%=      5-min Rain = 0
KLO1 170048Z 04014KT 12/07 A2998 RMK A01 T01240067  RH  068%=      5-min Rain = 0
KLO1 170049Z 04017KT 12/07 A2998 RMK A01 T01240067  RH  068%=      5-min Rain = 0
KLO1 170050Z 04015KT 12/07 A2998 RMK A01 T01230066  RH  068%=      5-min Rain = 0
KLO1 170051Z 04016KT 12/07 A2998 RMK A01 T01240066  RH  068%=      5-min Rain = 0
KLO1 170052Z 04012KT 12/07 A2998 RMK A01 T01230066  RH  068%=      5-min Rain = 0
KLO1 170053Z 04013KT 12/07 A2998 RMK A01 T01230067  RH  068%=      5-min Rain = 0
KLO1 170054Z 04015KT 12/07 A2998 RMK A01 T01230067  RH  069%=      5-min Rain = 0
KLO1 170055Z 04014KT 12/07 A2998 RMK A01 T01230068  RH  069%=      5-min Rain = 0
KLO1 170056Z 04015KT 12/07 A2998 RMK A01 T01230068  RH  069%=      5-min Rain = 0
KLO1 170057Z 04013KT 12/07 A2998 RMK A01 T01230068  RH  069%=      5-min Rain = 0
KLO1 170058Z 04015KT 12/07 A2998 RMK A01 T01220069  RH  070%=      5-min Rain = 0
KLO1 170059Z 04016KT 12/07 A2998 RMK A01 T01230068  RH  069%=      5-min Rain = 0
KLO1 170100Z 05016KT 12/07 A2998 RMK A01 T01220067  RH  069%=      5-min Rain = 0
KLO1 170101Z 05012KT 12/07 A2998 RMK A01 T01220066  RH  069%=      5-min Rain = 0
KLO1 170102Z 05013G18KT 12/07 A2999 RMK A01 T01210067  RH  069%=      5-min Rain = 0
KLO1 170103Z 05016KT 12/07 A2999 RMK A01 T01210066  RH  069%=      5-min Rain = 0
KLO1 170104Z 06016KT 12/07 A2999 RMK A01 T01200065  RH  069%=      5-min Rain = 0
KLO1 170105Z 05016KT 12/07 A2999 RMK A01 T01200065  RH  069%=      5-min Rain = 0
KLO1 170106Z 05015KT 12/06 A2999 RMK A01 T01200064  RH  069%=      5-min Rain = 0
KLO1 170107Z 05013KT 12/07 A2999 RMK A01 T01200065  RH  069%=      5-min Rain = 0
KLO1 170108Z 05016KT 12/06 A2999 RMK A01 T01190064  RH  069%=      5-min Rain = 0
KLO1 170109Z 05016KT 12/06 A2999 RMK A01 T01190064  RH  069%=      5-min Rain = 0
KLO1 170110Z 05016KT 12/06 A2999 RMK A01 T01190064  RH  069%=      5-min Rain = 0
KLO1 170111Z 05015KT 12/06 A2999 RMK A01 T01190064  RH  069%=      5-min Rain = 0
KLO1 170112Z 05013KT 12/06 A2999 RMK A01 T01190064  RH  069%=      5-min Rain = 0
KLO1 170113Z 05013KT 12/06 A2999 RMK A01 T01180064  RH  069%=      5-min Rain = 0
KLO1 170114Z 05014KT 12/06 A2999 RMK A01 T01180063  RH  069%=      5-min Rain = 0
KLO1 170115Z 05013KT 12/06 A2999 RMK A01 T01180063  RH  069%=      5-min Rain = 0
KLO1 170116Z 05011KT 12/06 A2999 RMK A01 T01180063  RH  069%=      5-min Rain = 0
KLO1 170117Z 05009KT 12/06 A30 RMK A01 T01170064  RH  070%=      5-min Rain = 0
KLO1 170118Z 05010KT 12/06 A30 RMK A01 T01170064  RH  070%=      5-min Rain = 0
KLO1 170119Z 05010KT 12/06 A30 RMK A01 T01160064  RH  070%=      5-min Rain = 0
KLO1 170120Z 05014KT 12/06 A30 RMK A01 T01160062  RH  070%=      5-min Rain = 0
KLO1 170121Z 05015KT 12/06 A30 RMK A01 T01160061  RH  069%=      5-min Rain = 0
KLO1 170122Z 05011KT 12/06 A30 RMK A01 T01170061  RH  069%=      5-min Rain = 0
KLO1 170123Z 05010KT 12/06 A30 RMK A01 T01170062  RH  069%=      5-min Rain = 0
KLO1 170124Z 05012KT 12/06 A30 RMK A01 T01170062  RH  069%=      5-min Rain = 0
KLO1 170125Z 05011KT 12/06 A30 RMK A01 T01170062  RH  069%=      5-min Rain = 0
KLO1 170126Z 04011KT 12/06 A30 RMK A01 T01170062  RH  069%=      5-min Rain = 0
KLO1 170127Z 05011KT 12/06 A30 RMK A01 T01160061  RH  069%=      5-min Rain = 0
KLO1 170128Z 04012KT 12/06 A3001 RMK A01 T01170061  RH  069%=      5-min Rain = 0
KLO1 170129Z 04010KT 12/06 A3001 RMK A01 T01170061  RH  069%=      5-min Rain = 0
KLO1 170130Z 05010KT 12/06 A30 RMK A01 T01170062  RH  069%=      5-min Rain = 0
KLO1 170131Z 04012KT 12/06 A30 RMK A01 T01170061  RH  069%=      5-min Rain = 0
KLO1 170132Z 04013KT 12/06 A30 RMK A01 T01170061  RH  069%=      5-min Rain = 0
KLO1 170133Z 04013KT 12/06 A30 RMK A01 T01170060  RH  068%=      5-min Rain = 0
KLO1 170134Z 04012KT 12/06 A30 RMK A01 T01170060  RH  068%=      5-min Rain = 0
KLO1 170135Z 04014KT 12/06 A30 RMK A01 T01170061  RH  069%=      5-min Rain = 0
KLO1 170136Z 04015KT 12/06 A30 RMK A01 T01170061  RH  068%=      5-min Rain = 0
KLO1 170137Z 04015KT 12/06 A30 RMK A01 T01170060  RH  068%=      5-min Rain = 0
KLO1 170138Z 04013KT 12/06 A30 RMK A01 T01160060  RH  068%=      5-min Rain = 0
KLO1 170139Z 04015KT 12/06 A30 RMK A01 T01170060  RH  068%=      5-min Rain = 0
KLO1 170140Z 04014KT 12/06 A30 RMK A01 T01170060  RH  068%=      5-min Rain = 0
KLO1 170141Z 05011KT 12/06 A30 RMK A01 T01170060  RH  068%=      5-min Rain = 0
KLO1 170142Z 05010KT 12/06 A30 RMK A01 T01160061  RH  069%=      5-min Rain = 0
KLO1 170143Z 05012KT 12/06 A30 RMK A01 T01160061  RH  069%=      5-min Rain = 0
KLO1 170144Z 05012KT 12/06 A30 RMK A01 T01160061  RH  069%=      5-min Rain = 0
KLO1 170145Z 05010KT 12/06 A30 RMK A01 T01160061  RH  069%=      5-min Rain = 0
KLO1 170146Z 05011KT 12/06 A30 RMK A01 T01160061  RH  069%=      5-min Rain = 0
KLO1 170147Z 05015KT 12/06 A30 RMK A01 T01160061  RH  069%=      5-min Rain = 0
KLO1 170148Z 04015KT 12/06 A30 RMK A01 T01160059  RH  068%=      5-min Rain = 0
KLO1 170149Z 04015KT 12/06 A30 RMK A01 T01160059  RH  068%=      5-min Rain = 0
KLO1 170150Z 04014KT 12/06 A30 RMK A01 T01160059  RH  068%=      5-min Rain = 0
KLO1 170151Z 04013KT 12/06 A30 RMK A01 T01160060  RH  068%=      5-min Rain = 0
KLO1 170152Z 05014KT 12/06 A30 RMK A01 T01160060  RH  068%=      5-min Rain = 0
KLO1 170153Z 04011KT 12/06 A30 RMK A01 T01160060  RH  069%=      5-min Rain = 0
KLO1 170154Z 04010KT 12/06 A30 RMK A01 T01160061  RH  069%=      5-min Rain = 0
KLO1 170155Z 04010KT 12/06 A3001 RMK A01 T01150061  RH  069%=      5-min Rain = 0
KLO1 170156Z 04014KT 12/06 A3001 RMK A01 T01150060  RH  069%=      5-min Rain = 0
KLO1 170157Z 04012KT 12/06 A3001 RMK A01 T01150060  RH  069%=      5-min Rain = 0
KLO1 170158Z 04015KT 12/06 A3001 RMK A01 T01150059  RH  068%=      5-min Rain = 0
KLO1 170159Z 05012G17KT 12/06 A3001 RMK A01 T01160059  RH  068%=      5-min Rain = 0
KLO1 170200Z 05015KT 12/06 A3001 RMK A01 T01160058  RH  068%=      5-min Rain = 0
KLO1 170201Z 05013KT 12/06 A3001 RMK A01 T01160058  RH  067%=      5-min Rain = 0
KLO1 170202Z 04013KT 12/06 A3001 RMK A01 T01170058  RH  067%=      5-min Rain = 0
KLO1 170203Z 04011KT 12/06 A3002 RMK A01 T01170059  RH  068%=      5-min Rain = 0
KLO1 170204Z 04011KT 12/06 A3002 RMK A01 T01160059  RH  068%=      5-min Rain = 0
KLO1 170205Z 05010G15KT 12/06 A3002 RMK A01 T01160058  RH  068%=      5-min Rain = 0
KLO1 170206Z 05012KT 12/06 A3002 RMK A01 T01160058  RH  067%=      5-min Rain = 0
KLO1 170207Z 05011KT 12/06 A3002 RMK A01 T01160058  RH  068%=      5-min Rain = 0
KLO1 170208Z 05013KT 12/06 A3002 RMK A01 T01160058  RH  068%=      5-min Rain = 0
KLO1 170209Z 05011G16KT 12/06 A3002 RMK A01 T01160057  RH  067%=      5-min Rain = 0
KLO1 170210Z 04012KT 12/06 A3003 RMK A01 T01160057  RH  067%=      5-min Rain = 0
KLO1 170211Z 04010KT 12/06 A3003 RMK A01 T01150057  RH  067%=      5-min Rain = 0
KLO1 170212Z 05010KT 12/06 A3003 RMK A01 T01150057  RH  067%=      5-min Rain = 0
KLO1 170213Z 06008KT 12/06 A3003 RMK A01 T01150057  RH  068%=      5-min Rain = 0
KLO1 170214Z 05008KT 11/06 A3003 RMK A01 T01140057  RH  068%=      5-min Rain = 0
KLO1 170215Z 05007KT 11/06 A3003 RMK A01 T01140058  RH  069%=      5-min Rain = 0
KLO1 170216Z 05008KT 11/06 A3003 RMK A01 T01130058  RH  069%=      5-min Rain = 0
KLO1 170217Z 06008KT 11/06 A3004 RMK A01 T01120058  RH  069%=      5-min Rain = 0
KLO1 170218Z 05008KT 11/06 A3004 RMK A01 T01130059  RH  069%=      5-min Rain = 0
KLO1 170219Z 05007KT 11/06 A3004 RMK A01 T01130059  RH  069%=      5-min Rain = 0
KLO1 170220Z 05010KT 11/06 A3004 RMK A01 T01120058  RH  070%=      5-min Rain = 0
KLO1 170221Z 05011KT 11/06 A3004 RMK A01 T01120057  RH  069%=      5-min Rain = 0
KLO1 170222Z 05012KT 11/06 A3003 RMK A01 T01130057  RH  069%=      5-min Rain = 0
KLO1 170223Z 05014KT 11/06 A3003 RMK A01 T01130056  RH  068%=      5-min Rain = 0
KLO1 170224Z 05012KT 11/06 A3003 RMK A01 T01130056  RH  068%=      5-min Rain = 0
KLO1 170225Z 05012KT 11/06 A3003 RMK A01 T01130056  RH  068%=      5-min Rain = 0
KLO1 170226Z 05013KT 11/06 A3003 RMK A01 T01120056  RH  068%=      5-min Rain = 0
KLO1 170227Z 05013KT 11/06 A3003 RMK A01 T01120056  RH  068%=      5-min Rain = 0
KLO1 170228Z 06011KT 11/06 A3003 RMK A01 T01120056  RH  068%=      5-min Rain = 0
KLO1 170229Z 06010KT 11/06 A3003 RMK A01 T01120056  RH  069%=      5-min Rain = 0
KLO1 170230Z 06010KT 11/06 A3003 RMK A01 T01110056  RH  069%=      5-min Rain = 0
KLO1 170231Z 05011KT 11/06 A3003 RMK A01 T01100056  RH  069%=      5-min Rain = 0
KLO1 170232Z 05014KT 11/06 A3003 RMK A01 T01100056  RH  069%=      5-min Rain = 0
KLO1 170233Z 05014KT 11/06 A3003 RMK A01 T01100055  RH  069%=      5-min Rain = 0
KLO1 170234Z 05011KT 11/05 A3003 RMK A01 T01100054  RH  068%=      5-min Rain = 0
KLO1 170235Z 05013KT 11/05 A3003 RMK A01 T01100054  RH  068%=      5-min Rain = 0
KLO1 170236Z 05015KT 11/05 A3003 RMK A01 T01100054  RH  068%=      5-min Rain = 0
KLO1 170237Z 05015KT 11/05 A3003 RMK A01 T01100053  RH  068%=      5-min Rain = 0
KLO1 170238Z 05014KT 11/05 A3003 RMK A01 T01110053  RH  068%=      5-min Rain = 0
KLO1 170239Z 04013KT 11/05 A3003 RMK A01 T01110053  RH  067%=      5-min Rain = 0
KLO1 170240Z 04015KT 11/05 A3003 RMK A01 T01110053  RH  068%=      5-min Rain = 0
KLO1 170241Z 04016KT 11/05 A3004 RMK A01 T01110052  RH  067%=      5-min Rain = 0
KLO1 170242Z 04016KT 11/05 A3004 RMK A01 T01110051  RH  067%=      5-min Rain = 0
KLO1 170243Z 04012KT 11/05 A3004 RMK A01 T01110052  RH  067%=      5-min Rain = 0
KLO1 170244Z 05011KT 11/05 A3004 RMK A01 T01110052  RH  067%=      5-min Rain = 0
KLO1 170245Z 05011KT 11/05 A3004 RMK A01 T01100052  RH  067%=      5-min Rain = 0
KLO1 170246Z 05012KT 11/05 A3005 RMK A01 T01100050  RH  067%=      5-min Rain = 0
KLO1 170247Z 05014KT 11/05 A3005 RMK A01 T01100049  RH  066%=      5-min Rain = 0
KLO1 170248Z 05011G16KT 11/05 A3005 RMK A01 T01110049  RH  066%=      5-min Rain = 0
KLO1 170249Z 06015G20KT 11/05 A3005 RMK A01 T01110049  RH  065%=      5-min Rain = 0
KLO1 170250Z 05016KT 11/05 A3005 RMK A01 T01110047  RH  064%=      5-min Rain = 0
KLO1 170251Z 05020KT 11/05 A3005 RMK A01 T01110046  RH  064%=      5-min Rain = 0
KLO1 170252Z 05014KT 11/05 A3005 RMK A01 T01110046  RH  064%=      5-min Rain = 0
KLO1 170253Z 06014KT 11/05 A3005 RMK A01 T01110047  RH  064%=      5-min Rain = 0
KLO1 170254Z 05016KT 11/05 A3006 RMK A01 T01110046  RH  064%=      5-min Rain = 0
KLO1 170255Z 05016KT 11/05 A3006 RMK A01 T01110045  RH  064%=      5-min Rain = 0
KLO1 170256Z 05013KT 11/05 A3006 RMK A01 T01110045  RH  064%=      5-min Rain = 0
KLO1 170257Z 05012KT 11/05 A3006 RMK A01 T01110045  RH  064%=      5-min Rain = 0
KLO1 170258Z 04015KT 11/05 A3006 RMK A01 T01110045  RH  064%=      5-min Rain = 0
KLO1 170259Z 05016KT 11/04 A3006 RMK A01 T01110044  RH  064%=      5-min Rain = 0
KLO1 170300Z 05013KT 11/04 A3006 RMK A01 T01110044  RH  064%=      5-min Rain = 0
KLO1 170301Z 05013G18KT 11/04 A3006 RMK A01 T01100044  RH  064%=      5-min Rain = 0
KLO1 170302Z 05015KT 11/04 A3006 RMK A01 T01100044  RH  064%=      5-min Rain = 0
KLO1 170303Z 05011KT 11/04 A3006 RMK A01 T01100044  RH  064%=      5-min Rain = 0
KLO1 170304Z 05012KT 11/04 A3006 RMK A01 T01100044  RH  064%=      5-min Rain = 0
KLO1 170305Z 05010KT 11/05 A3006 RMK A01 T01090045  RH  064%=      5-min Rain = 0
KLO1 170306Z 06010KT 11/05 A3006 RMK A01 T01090045  RH  065%=      5-min Rain = 0
KLO1 170307Z 04012KT 11/05 A3007 RMK A01 T01090045  RH  065%=      5-min Rain = 0
KLO1 170308Z 05012KT 11/04 A3007 RMK A01 T01090043  RH  064%=      5-min Rain = 0
KLO1 170309Z 05009KT 11/04 A3007 RMK A01 T01090044  RH  064%=      5-min Rain = 0
KLO1 170310Z 05008KT 11/05 A3007 RMK A01 T01080046  RH  065%=      5-min Rain = 0
KLO1 170311Z 05007KT 11/05 A3007 RMK A01 T01070047  RH  066%=      5-min Rain = 0
KLO1 170312Z 05008KT 11/05 A3007 RMK A01 T01070048  RH  067%=      5-min Rain = 0
KLO1 170313Z 05008KT 11/05 A3008 RMK A01 T01070049  RH  067%=      5-min Rain = 0
KLO1 170314Z 05013KT 11/05 A3008 RMK A01 T01070048  RH  067%=      5-min Rain = 0
KLO1 170315Z 05013KT 11/05 A3008 RMK A01 T01080047  RH  066%=      5-min Rain = 0
KLO1 170316Z 04012KT 11/05 A3008 RMK A01 T01080046  RH  066%=      5-min Rain = 0
KLO1 170317Z 04012KT 11/05 A3008 RMK A01 T01080046  RH  065%=      5-min Rain = 0
KLO1 170318Z 04013KT 11/05 A3008 RMK A01 T01080046  RH  065%=      5-min Rain = 0
KLO1 170319Z 05013KT 11/05 A3008 RMK A01 T01080045  RH  065%=      5-min Rain = 0
KLO1 170320Z 05009KT 11/05 A3008 RMK A01 T01080045  RH  065%=      5-min Rain = 0
KLO1 170321Z 05009KT 11/05 A3008 RMK A01 T01080046  RH  066%=      5-min Rain = 0
KLO1 170322Z 04010KT 11/05 A3007 RMK A01 T01080047  RH  066%=      5-min Rain = 0
KLO1 170323Z 04009KT 11/05 A3007 RMK A01 T01070047  RH  066%=      5-min Rain = 0
KLO1 170324Z 04010KT 11/05 A3007 RMK A01 T01070047  RH  066%=      5-min Rain = 0
KLO1 170325Z 04015KT 11/05 A3007 RMK A01 T01070046  RH  066%=      5-min Rain = 0
KLO1 170326Z 04015KT 11/04 A3007 RMK A01 T01070044  RH  065%=      5-min Rain = 0
KLO1 170327Z 04014KT 11/04 A3007 RMK A01 T01070044  RH  065%=      5-min Rain = 0
KLO1 170328Z 04014KT 11/04 A3008 RMK A01 T01080044  RH  065%=      5-min Rain = 0
KLO1 170329Z 04015KT 11/04 A3008 RMK A01 T01070043  RH  064%=      5-min Rain = 0
KLO1 170330Z 03018KT 11/04 A3008 RMK A01 T01080042  RH  064%=      5-min Rain = 0
KLO1 170331Z 04015KT 11/04 A3009 RMK A01 T01080041  RH  063%=      5-min Rain = 0
KLO1 170332Z 04013KT 11/04 A3009 RMK A01 T01080042  RH  064%=      5-min Rain = 0
KLO1 170333Z 04017G22KT 11/04 A3009 RMK A01 T01080042  RH  064%=      5-min Rain = 0
KLO1 170334Z 04016KT 11/04 A3009 RMK A01 T01080040  RH  063%=      5-min Rain = 0
KLO1 170335Z 04017KT 11/04 A3009 RMK A01 T01080040  RH  063%=      5-min Rain = 0
KLO1 170336Z 04013G18KT 11/04 A3009 RMK A01 T01080040  RH  063%=      5-min Rain = 0
KLO1 170337Z 04015KT 11/04 A3009 RMK A01 T01080040  RH  063%=      5-min Rain = 0
KLO1 170338Z 03014KT 11/04 A3009 RMK A01 T01070039  RH  062%=      5-min Rain = 0
KLO1 170339Z 03017KT 11/04 A301 RMK A01 T01070038  RH  062%=      5-min Rain = 0
KLO1 170340Z 03014KT 11/04 A301 RMK A01 T01070038  RH  062%=      5-min Rain = 0
KLO1 170341Z 03014KT 11/04 A301 RMK A01 T01070038  RH  062%=      5-min Rain = 0
KLO1 170342Z 03016KT 11/04 A301 RMK A01 T01070038  RH  062%=      5-min Rain = 0
KLO1 170343Z 03018KT 11/04 A301 RMK A01 T01060037  RH  062%=      5-min Rain = 0
KLO1 170344Z 04018KT 11/04 A301 RMK A01 T01060037  RH  062%=      5-min Rain = 0
KLO1 170345Z 03014KT 11/04 A301 RMK A01 T01060037  RH  062%=      5-min Rain = 0
KLO1 170346Z 04012KT 11/04 A301 RMK A01 T01050038  RH  063%=      5-min Rain = 0
KLO1 170347Z 04016KT 11/04 A301 RMK A01 T01050037  RH  063%=      5-min Rain = 0
KLO1 170348Z 04016KT 11/04 A301 RMK A01 T01050036  RH  063%=      5-min Rain = 0
KLO1 170349Z 04016KT 11/04 A301 RMK A01 T01050037  RH  063%=      5-min Rain = 0
KLO1 170350Z 04017KT 11/04 A3011 RMK A01 T01050036  RH  062%=      5-min Rain = 0
KLO1 170351Z 04018KT 11/04 A3011 RMK A01 T01050035  RH  062%=      5-min Rain = 0
KLO1 170352Z 05017KT 11/04 A3011 RMK A01 T01050035  RH  062%=      5-min Rain = 0
KLO1 170353Z 04015KT 11/04 A301 RMK A01 T01050035  RH  062%=      5-min Rain = 0
KLO1 170354Z 04017KT 11/04 A301 RMK A01 T01050035  RH  062%=      5-min Rain = 0
KLO1 170355Z 05015KT 10/04 A301 RMK A01 T01040035  RH  062%=      5-min Rain = 0
KLO1 170356Z 04017KT 10/04 A301 RMK A01 T01040035  RH  063%=      5-min Rain = 0
KLO1 170357Z 04016KT 10/04 A301 RMK A01 T01040036  RH  063%=      5-min Rain = 0
KLO1 170358Z 04016KT 10/04 A301 RMK A01 T01040035  RH  063%=      5-min Rain = 0
KLO1 170359Z 04016KT 10/04 A301 RMK A01 T01040035  RH  062%=      5-min Rain = 0
KLO1 170400Z 04013KT 10/04 A301 RMK A01 T01040035  RH  063%=      5-min Rain = 0
KLO1 170401Z 04014KT 10/04 A301 RMK A01 T01030036  RH  063%=      5-min Rain = 0
KLO1 170402Z 05017KT 10/04 A301 RMK A01 T01030035  RH  063%=      5-min Rain = 0
KLO1 170403Z 05016KT 10/04 A301 RMK A01 T01030035  RH  063%=      5-min Rain = 0
KLO1 170404Z 04014KT 10/04 A301 RMK A01 T01030036  RH  063%=      5-min Rain = 0
KLO1 170405Z 05012KT 10/04 A301 RMK A01 T01030036  RH  063%=      5-min Rain = 0
KLO1 170406Z 04014KT 10/04 A301 RMK A01 T01020036  RH  064%=      5-min Rain = 0
KLO1 170407Z 04012KT 10/04 A301 RMK A01 T01020036  RH  064%=      5-min Rain = 0
KLO1 170408Z 04013KT 10/04 A301 RMK A01 T01020037  RH  064%=      5-min Rain = 0
KLO1 170409Z 04011KT 10/04 A301 RMK A01 T01010037  RH  064%=      5-min Rain = 0
KLO1 170410Z 03011KT 10/04 A301 RMK A01 T01010038  RH  065%=      5-min Rain = 0
KLO1 170411Z 04014KT 10/04 A301 RMK A01 T01010037  RH  065%=      5-min Rain = 0
KLO1 170412Z 05016KT 10/04 A301 RMK A01 T01010037  RH  065%=      5-min Rain = 0
KLO1 170413Z 04015KT 10/04 A301 RMK A01 T01000036  RH  064%=      5-min Rain = 0
KLO1 170414Z 04016KT 10/04 A301 RMK A01 T01000036  RH  064%=      5-min Rain = 0
KLO1 170415Z 04014KT 10/04 A301 RMK A01 T01000036  RH  064%=      5-min Rain = 0
KLO1 170416Z 03015KT 10/04 A301 RMK A01 T01000036  RH  064%=      5-min Rain = 0
KLO1 170417Z 03016KT 10/04 A3011 RMK A01 T00990035  RH  064%=      5-min Rain = 0
KLO1 170418Z 03017KT 10/03 A3011 RMK A01 T00990034  RH  064%=      5-min Rain = 0
KLO1 170419Z 04016KT 10/03 A3011 RMK A01 T00990034  RH  064%=      5-min Rain = 0
KLO1 170420Z 03013KT 10/03 A3011 RMK A01 T00990034  RH  064%=      5-min Rain = 0
KLO1 170421Z 03013KT 10/04 A3011 RMK A01 T00990035  RH  064%=      5-min Rain = 0
KLO1 170422Z 03016KT 10/03 A3011 RMK A01 T00980034  RH  064%=      5-min Rain = 0
KLO1 170423Z 02016KT 10/03 A3011 RMK A01 T00980033  RH  064%=      5-min Rain = 0
KLO1 170424Z 03014KT 10/03 A3011 RMK A01 T00970032  RH  064%=      5-min Rain = 0
KLO1 170425Z 03014KT 10/03 A3011 RMK A01 T00970033  RH  064%=      5-min Rain = 0
KLO1 170426Z 03016KT 10/03 A3011 RMK A01 T00960032  RH  064%=      5-min Rain = 0
KLO1 170427Z 03015KT 10/03 A3011 RMK A01 T00960032  RH  064%=      5-min Rain = 0
KLO1 170428Z 03016G21KT 10/03 A3011 RMK A01 T00960032  RH  064%=      5-min Rain = 0
KLO1 170429Z 03017KT 10/03 A3011 RMK A01 T00960032  RH  064%=      5-min Rain = 0
KLO1 170430Z 03015KT 10/03 A3011 RMK A01 T00950032  RH  064%=      5-min Rain = 0
KLO1 170431Z 03016KT 10/03 A301 RMK A01 T00950032  RH  065%=      5-min Rain = 0
KLO1 170432Z 03017KT 10/03 A3011 RMK A01 T00950031  RH  065%=      5-min Rain = 0
KLO1 170433Z 03017KT 10/03 A3011 RMK A01 T00950031  RH  065%=      5-min Rain = 0
KLO1 170434Z 03015KT 10/03 A3011 RMK A01 T00950031  RH  065%=      5-min Rain = 0
KLO1 170435Z 03015KT 09/03 A301 RMK A01 T00940032  RH  065%=      5-min Rain = 0
KLO1 170436Z 04013KT 09/03 A3011 RMK A01 T00940032  RH  065%=      5-min Rain = 0
KLO1 170437Z 03013G19KT 09/03 A3011 RMK A01 T00940032  RH  065%=      5-min Rain = 0
KLO1 170438Z 03016KT 09/03 A3011 RMK A01 T00940032  RH  065%=      5-min Rain = 0
KLO1 170439Z 03018KT 09/03 A3011 RMK A01 T00930030  RH  065%=      5-min Rain = 0
KLO1 170440Z 03017KT 09/03 A3011 RMK A01 T00930030  RH  065%=      5-min Rain = 0
KLO1 170441Z 03017KT 09/03 A3012 RMK A01 T00930030  RH  065%=      5-min Rain = 0
KLO1 170442Z 03017KT 09/03 A3012 RMK A01 T00930030  RH  065%=      5-min Rain = 0
KLO1 170443Z 02018KT 09/03 A3011 RMK A01 T00920030  RH  065%=      5-min Rain = 0
KLO1 170444Z 02018KT 09/03 A3011 RMK A01 T00920029  RH  065%=      5-min Rain = 0
KLO1 170445Z 03020KT 09/03 A3011 RMK A01 T00920028  RH  064%=      5-min Rain = 0
KLO1 170446Z 03021KT 09/03 A3011 RMK A01 T00910027  RH  064%=      5-min Rain = 0
KLO1 170447Z 03018KT 09/03 A3011 RMK A01 T00910026  RH  064%=      5-min Rain = 0
KLO1 170448Z 03018KT 09/03 A3011 RMK A01 T00900026  RH  064%=      5-min Rain = 0
KLO1 170449Z 03017KT 09/03 A3011 RMK A01 T00900025  RH  064%=      5-min Rain = 0
KLO1 170450Z 03019KT 09/03 A3011 RMK A01 T00900025  RH  064%=      5-min Rain = 0
KLO1 170451Z 03018KT 09/02 A3011 RMK A01 T00900024  RH  064%=      5-min Rain = 0
KLO1 170452Z 03016KT 09/02 A3011 RMK A01 T00890024  RH  064%=      5-min Rain = 0
KLO1 170453Z 03013KT 09/03 A3011 RMK A01 T00890025  RH  064%=      5-min Rain = 0
KLO1 170454Z 03014KT 09/03 A3011 RMK A01 T00880025  RH  065%=      5-min Rain = 0
KLO1 170455Z 02017KT 09/03 A3012 RMK A01 T00880025  RH  065%=      5-min Rain = 0
KLO1 170456Z 02016KT 09/02 A3012 RMK A01 T00880024  RH  064%=      5-min Rain = 0
KLO1 170457Z 02017KT 09/02 A3012 RMK A01 T00870024  RH  064%=      5-min Rain = 0
KLO1 170458Z 02016KT 09/02 A3012 RMK A01 T00870024  RH  064%=      5-min Rain = 0
KLO1 170459Z 02015G20KT 09/02 A3012 RMK A01 T00870024  RH  065%=      5-min Rain = 0

Page generated in 0.0653 seconds.